GFSGBSN_sfc_wetblb_057.txt.gz
Wetbulb
55.60 55.70 55.79 55.72 55.44 55.62 55.78 55.83 55.84 55.66 55.59 55.80 55.65 56.09 56.07 56.19 55.85 55.98 56.28 56.37 56.28 56.36 56.91 57.50 57.06 56.43 54.53 48.41 47.67 57.27 66.23 65.48 64.11 65.44 62.35 58.87 58.38 58.16 54.35 58.22 61.23 61.99 63.35 64.52 66.01 65.83 65.47
55.53 55.59 55.65 55.54 55.49 55.62 55.36 55.51 55.44 55.40 55.37 55.39 55.62 55.97 56.01 56.10 56.20 56.18 56.10 55.51 55.59 55.91 57.57 58.77 56.84 56.91 52.10 44.43 53.90 58.30 62.00 62.54 63.33 64.28 60.22 61.07 59.03 59.71 56.77 58.08 58.60 62.11 62.99 63.84 64.31 64.42 64.67
55.31 55.39 55.68 55.69 55.58 55.34 55.24 55.24 55.36 55.06 55.05 55.29 55.63 55.83 55.61 55.75 55.82 55.34 55.18 55.10 55.18 56.18 58.04 58.43 58.18 55.86 50.55 48.60 57.59 58.99 60.89 61.19 63.12 62.27 59.42 59.99 61.01 58.46 55.64 54.23 58.86 59.57 57.36 58.85 61.13 62.21 62.88
55.53 55.48 55.58 55.58 55.57 55.29 55.28 55.23 55.00 55.48 55.43 55.71 55.55 55.60 55.34 55.45 55.31 54.87 54.77 54.50 55.26 56.89 58.00 58.53 59.32 55.95 49.72 57.27 59.32 58.54 58.27 60.13 62.53 60.98 57.63 56.96 57.34 57.79 53.52 55.20 52.76 52.35 55.05 54.64 60.36 61.12 61.92
55.48 55.39 55.43 55.31 55.40 55.56 55.61 55.33 55.27 55.54 55.28 55.14 55.22 55.04 55.01 54.85 54.63 54.46 53.88 54.95 57.87 58.78 59.34 59.40 56.76 53.43 45.96 58.88 50.82 51.82 55.09 54.21 58.55 60.96 57.12 57.16 55.20 52.60 52.48 50.60 48.89 50.97 47.12 51.26 56.36 60.89 61.99
55.52 55.37 55.33 55.11 55.00 55.39 55.50 55.32 55.36 55.09 55.02 54.83 54.71 54.55 54.34 54.10 53.82 53.53 53.43 56.02 60.38 59.75 59.00 58.97 56.71 49.30 49.14 45.94 49.00 49.95 53.26 59.16 56.73 55.56 52.39 51.52 52.65 48.75 48.50 47.94 42.00 45.98 47.06 52.11 54.80 59.67 60.53
55.55 55.39 55.15 55.04 54.89 55.23 55.26 55.20 55.11 54.95 54.89 54.81 54.64 54.15 53.74 53.53 53.14 52.78 51.61 49.61 48.10 46.78 47.95 43.98 44.20 43.88 46.36 48.78 50.56 50.21 54.95 56.69 55.90 51.18 45.46 49.47 45.49 44.37 46.10 48.05 49.05 50.15 49.41 49.34 56.50 60.11 59.53
55.50 55.42 55.19 54.91 54.63 54.96 55.08 55.05 54.62 54.64 54.81 54.62 54.31 53.84 53.49 52.95 52.71 52.68 50.20 48.21 47.53 47.86 42.87 45.13 44.62 44.64 46.63 47.19 45.22 48.46 53.34 52.72 52.20 47.72 47.63 45.29 42.72 47.28 47.74 46.99 47.28 48.03 47.56 50.17 53.96 56.67 58.88
55.23 54.95 55.00 54.84 55.14 55.26 54.97 54.64 54.41 54.33 54.31 54.11 53.80 53.45 52.93 52.32 52.47 50.69 48.46 48.44 50.31 48.39 41.75 43.61 45.34 45.14 45.19 46.62 44.93 45.38 49.51 48.12 50.56 47.51 46.76 44.40 45.79 48.16 46.15 45.09 44.76 46.20 46.22 47.96 50.17 54.45 56.68
55.05 55.22 55.17 55.03 54.99 55.01 54.70 54.41 54.27 54.33 54.06 53.74 53.70 53.35 52.48 51.13 49.62 47.68 47.36 49.14 50.74 48.08 39.60 40.30 42.40 44.29 46.47 45.23 43.31 48.36 52.35 47.55 46.64 48.26 47.84 47.56 49.90 46.56 45.66 44.60 45.58 42.64 47.74 48.82 48.90 48.25 49.08
55.11 55.32 55.16 55.07 54.91 54.64 54.53 54.27 54.27 54.25 53.76 53.63 53.59 52.91 51.52 50.45 48.75 48.53 49.63 50.55 47.46 45.56 31.05 40.89 42.46 47.58 46.13 43.57 44.32 45.26 52.52 50.05 44.55 45.25 47.96 46.96 47.27 46.46 44.97 45.52 47.05 44.56 47.59 46.14 47.83 47.85 48.08
54.99 54.68 54.68 54.80 54.55 54.56 54.45 54.08 54.10 53.96 53.72 53.57 53.14 52.02 51.29 50.01 49.05 50.84 50.43 49.16 46.89 38.01 29.63 37.68 42.34 40.16 41.53 42.84 42.99 45.52 48.09 50.18 49.58 46.58 47.54 46.69 51.76 50.75 49.18 48.99 48.13 48.81 47.57 46.92 46.28 45.88 42.09
54.59 54.56 54.58 54.53 54.35 54.47 54.21 54.10 53.96 53.74 53.35 52.86 51.81 50.64 49.49 51.01 47.69 51.99 49.58 46.78 37.46 32.21 39.66 36.07 37.93 39.10 39.39 38.97 40.08 42.39 43.00 42.32 41.49 40.07 40.87 44.22 46.16 49.43 51.68 48.28 49.33 47.71 45.02 40.15 38.53 38.22 39.55
54.63 55.00 55.07 54.60 54.41 54.39 54.10 54.10 54.00 53.57 53.06 52.11 50.33 48.08 48.97 51.35 51.24 49.60 47.34 43.15 31.69 36.08 35.53 39.40 38.87 38.13 36.51 38.25 38.64 40.03 39.96 39.16 42.17 41.74 41.73 39.64 38.30 45.99 49.76 48.85 46.98 46.55 45.98 40.73 35.40 36.95 39.27
54.77 55.10 54.89 54.33 54.37 54.27 54.10 54.17 53.78 53.35 52.67 51.39 48.76 47.22 49.54 50.61 49.89 48.40 47.00 36.62 34.95 36.12 38.66 37.36 38.08 35.04 34.96 37.40 37.89 37.84 37.94 38.71 40.64 40.89 36.46 38.51 38.98 45.70 47.02 48.10 49.76 46.97 43.79 48.36 43.08 44.14 41.74
54.28 54.45 53.81 53.98 54.21 54.15 54.23 54.02 53.65 53.22 52.29 51.06 45.57 44.69 48.30 50.61 47.94 47.62 43.81 35.42 37.21 40.96 40.96 39.16 33.96 36.30 33.41 35.00 35.55 36.27 36.01 40.94 39.90 41.61 43.35 39.22 34.13 43.29 45.04 47.87 49.25 48.69 50.60 43.27 44.03 36.62 36.60
54.19 54.30 53.58 53.62 54.06 54.10 54.27 53.96 53.32 52.67 51.75 49.96 44.75 45.47 49.21 49.13 49.20 44.96 37.85 36.22 38.20 42.18 42.42 38.27 36.22 35.41 35.54 34.63 35.63 34.96 35.48 39.45 41.23 40.50 43.40 41.58 36.86 38.09 42.90 44.30 45.53 45.94 45.45 47.16 47.31 44.68 39.25
54.01 54.17 53.92 54.11 54.00 54.13 53.44 53.21 52.60 51.49 50.63 48.51 43.04 41.15 49.47 47.66 41.25 38.20 36.63 36.48 38.95 40.07 42.67 40.54 39.94 38.30 36.19 35.82 34.71 34.82 34.81 38.06 42.99 42.49 37.57 41.62 37.68 33.07 37.41 45.56 46.58 45.26 45.48 47.52 42.81 42.18 45.30
53.85 54.05 53.84 54.07 54.02 53.30 53.26 53.10 52.21 51.22 50.39 46.98 40.34 40.10 48.54 48.30 35.97 35.28 36.95 36.71 38.63 39.18 39.67 38.86 37.36 38.85 38.61 35.70 32.98 36.08 37.26 42.47 43.52 41.63 39.24 41.86 35.73 30.94 34.48 40.71 44.38 42.86 43.07 45.01 46.77 46.91 44.69
53.54 53.70 53.85 53.32 52.97 52.87 53.31 53.06 52.14 51.61 50.41 47.16 42.48 38.26 41.81 41.98 40.27 37.20 33.75 34.98 35.49 41.27 39.95 40.47 38.95 39.57 37.23 35.62 37.36 34.78 35.94 40.23 42.63 41.89 43.93 43.45 37.07 33.89 31.59 33.93 38.01 37.02 39.98 41.33 42.10 42.88 44.30
53.41 53.23 53.48 52.81 52.67 52.96 53.54 53.30 52.69 51.74 49.67 46.86 41.99 37.96 38.75 36.06 37.98 37.51 37.37 35.57 34.08 34.55 40.24 40.64 37.86 37.48 36.25 33.41 34.45 34.13 36.42 37.37 40.79 42.41 42.38 40.63 32.56 34.52 35.38 36.23 36.67 36.45 37.21 39.72 39.04 43.53 42.48
53.22 53.08 52.86 52.70 52.76 53.35 53.41 53.63 53.22 52.18 48.75 45.87 41.42 41.01 40.97 39.30 38.29 36.97 37.09 34.94 34.99 36.51 37.10 35.60 35.37 37.61 38.19 34.92 35.97 33.51 36.11 36.49 36.77 40.79 39.86 40.66 33.21 34.79 32.51 36.28 37.51 35.12 38.29 39.51 40.78 42.11 42.84
53.26 52.74 52.47 52.86 53.20 53.56 53.62 53.72 53.45 52.31 49.33 45.46 45.13 45.62 42.14 38.14 37.29 36.56 36.91 37.19 37.24 39.49 39.03 39.93 38.59 37.11 35.11 37.88 41.08 41.86 42.05 41.07 40.02 37.48 37.76 36.94 33.91 32.34 29.06 37.06 37.14 34.00 38.60 40.58 43.14 44.69 44.92
52.87 52.59 52.67 53.12 53.25 53.43 53.33 53.51 53.67 52.80 51.13 49.52 47.66 47.40 41.14 35.73 37.66 37.64 38.59 39.44 38.87 39.50 36.92 38.56 40.18 37.31 40.86 44.84 44.22 42.46 41.46 40.71 40.50 39.45 40.47 34.87 33.63 34.17 29.60 33.15 27.48 41.03 47.40 47.27 44.94 44.08 45.80
52.58 52.37 52.95 53.08 52.87 53.00 53.24 53.57 53.74 53.51 52.58 50.70 50.15 47.37 41.96 36.63 39.00 39.15 39.29 39.53 40.21 40.14 38.57 37.84 40.36 43.14 45.06 41.73 36.09 32.97 32.42 33.45 36.52 38.48 38.35 39.73 35.87 31.16 27.94 30.36 36.64 42.36 43.33 43.72 44.15 41.75 44.68
52.27 52.52 52.64 52.73 53.08 53.35 53.55 53.76 53.94 53.61 53.32 51.91 51.62 51.39 44.79 39.42 39.12 40.90 39.17 40.70 37.19 36.49 37.22 37.98 43.55 45.55 42.31 38.54 34.41 28.40 26.82 29.32 29.58 33.06 39.04 37.97 38.80 33.74 30.69 28.00 30.06 37.23 41.96 45.23 47.01 40.64 44.96
52.10 52.29 52.37 52.72 53.12 53.30 53.64 53.70 53.99 53.84 53.36 52.39 51.35 51.85 46.67 40.87 43.68 42.63 39.67 39.17 41.31 38.74 35.76 37.97 39.66 39.89 41.11 35.69 32.04 29.99 29.75 32.34 28.94 28.67 29.26 31.47 32.53 29.38 29.94 28.34 34.41 38.66 40.67 44.83 37.78 39.89 44.83
51.68 52.04 52.48 52.67 52.99 53.18 53.45 53.72 54.13 54.07 53.98 52.35 50.43 51.94 47.82 43.56 45.26 45.08 45.01 42.02 41.85 40.85 36.33 39.63 39.03 38.47 36.55 33.08 32.72 32.43 31.84 33.49 32.35 34.26 32.19 31.06 30.41 30.53 31.30 28.83 27.98 40.07 40.06 39.27 43.11 45.90 45.40
51.52 51.89 52.46 52.61 52.93 53.45 53.94 53.91 54.03 54.07 54.10 51.68 48.49 51.54 51.04 45.96 44.70 47.70 47.90 47.79 46.23 45.20 42.53 42.73 38.84 38.68 38.47 34.18 34.89 34.71 32.56 33.59 34.56 30.92 36.92 32.79 35.64 34.87 35.71 34.97 39.94 42.44 41.74 44.75 47.55 46.01 45.09

GFSGBSN_sfc_wetblb_060.txt.gz
Wetbulb
56.07 56.21 56.32 56.46 56.16 55.97 55.83 55.99 56.12 56.33 56.06 56.11 56.40 56.66 56.76 56.65 56.12 56.33 56.66 56.54 56.50 56.52 56.81 57.79 57.92 57.11 57.51 53.77 50.15 60.06 67.28 67.56 66.56 63.93 64.59 63.38 61.37 60.47 56.66 59.52 60.81 62.35 64.69 66.56 67.61 67.22 66.97
56.15 56.25 56.37 56.31 56.05 55.71 55.72 55.64 55.83 55.70 55.73 56.10 56.39 56.43 56.31 56.21 56.50 56.28 56.22 55.99 55.69 55.96 57.09 59.06 58.25 57.97 56.23 48.81 57.05 60.74 64.28 64.23 61.56 61.10 64.02 62.27 60.08 60.42 57.17 57.15 58.01 61.34 62.04 64.33 66.56 67.23 67.09
55.97 56.09 56.22 55.97 55.98 55.53 55.44 55.40 55.45 55.29 55.47 55.62 56.12 56.06 55.92 55.88 55.69 55.84 55.72 55.35 55.87 56.27 58.37 58.95 58.46 58.75 55.18 52.47 59.65 60.02 63.59 62.98 64.52 62.52 61.40 61.82 61.24 59.25 56.96 56.08 60.30 59.82 59.09 61.19 63.41 66.34 65.57
56.05 55.98 55.94 55.81 55.63 55.73 55.41 55.36 55.21 55.51 55.60 55.68 55.91 55.77 55.67 55.63 55.09 55.13 54.81 55.23 56.61 57.41 58.56 58.89 59.44 59.79 52.66 57.56 60.48 57.48 60.43 62.45 65.87 64.30 62.34 63.47 61.01 59.91 56.43 56.90 54.22 53.97 55.92 54.59 62.10 65.06 65.57
55.92 55.74 55.68 55.60 55.88 55.87 55.68 55.58 55.60 55.63 55.45 55.49 55.39 55.33 55.21 55.21 54.94 54.58 54.15 55.58 58.98 59.16 59.57 59.67 59.98 56.85 49.04 58.33 52.51 54.26 56.66 59.62 62.45 60.79 61.41 61.24 59.10 57.58 57.57 52.07 49.76 51.64 49.84 52.49 60.78 65.06 64.63
55.81 55.71 55.53 55.47 55.37 55.61 55.64 55.49 55.37 55.18 55.36 55.34 55.04 54.81 54.65 54.65 54.25 53.88 53.29 54.83 60.23 59.68 60.31 60.63 58.98 53.38 51.28 49.09 52.47 53.01 57.22 61.01 59.45 59.11 54.81 55.24 54.82 52.53 52.44 50.56 46.10 48.50 49.38 52.99 57.89 62.61 63.93
55.85 55.58 55.56 55.31 55.22 55.36 55.39 55.25 55.08 55.06 55.18 55.12 54.83 54.44 54.48 54.13 53.37 53.17 55.46 55.40 55.17 51.07 52.34 47.90 48.29 47.58 48.95 51.92 54.43 53.74 59.36 59.30 58.40 57.98 50.72 52.09 49.81 47.78 49.98 51.37 51.59 51.33 51.78 51.53 57.85 62.87 62.52
55.62 55.63 55.50 55.11 54.98 55.05 55.05 54.96 54.91 54.65 54.75 54.83 54.58 54.27 54.07 53.37 52.86 53.21 56.13 51.90 50.80 51.78 47.30 49.23 48.25 48.60 49.73 50.39 48.93 51.51 57.95 55.50 53.73 50.67 51.91 49.23 46.25 51.10 52.35 51.36 50.18 49.97 50.78 52.05 55.02 60.72 61.82
55.55 55.47 55.34 55.23 55.21 55.30 55.02 54.81 54.62 54.64 54.52 54.50 54.52 54.15 53.58 52.72 52.68 56.03 53.32 51.90 55.20 53.98 47.24 47.31 48.38 47.80 48.08 50.08 47.48 48.31 53.82 54.51 53.56 50.90 49.79 47.97 49.57 51.03 49.93 49.55 48.13 48.90 48.64 50.93 52.63 56.33 58.97
55.41 55.53 55.67 55.49 55.30 55.10 54.97 54.83 54.62 54.52 54.58 54.29 54.19 53.88 52.92 51.36 52.01 55.13 53.02 54.97 56.12 54.45 44.04 43.97 45.48 46.86 48.93 48.93 46.22 50.94 54.30 51.76 51.96 51.18 51.39 50.23 52.78 49.42 48.81 47.63 48.95 46.57 50.15 49.33 51.55 52.27 51.25
55.87 55.70 55.55 55.34 55.12 54.87 54.83 54.60 54.62 54.52 54.33 54.11 53.97 53.11 52.07 50.82 55.18 53.77 53.89 56.28 55.06 51.16 35.43 43.40 45.10 50.44 49.34 46.96 47.04 48.02 54.40 52.39 48.35 49.31 52.31 49.57 49.88 50.00 47.84 48.81 50.19 47.84 50.82 49.55 48.98 50.84 52.03
55.95 55.69 55.36 55.01 54.62 54.58 54.64 54.39 54.43 54.39 53.90 53.64 53.19 52.29 50.97 54.68 56.46 54.96 56.26 55.06 51.44 42.09 34.81 40.98 44.91 43.45 44.90 45.88 45.77 48.56 49.46 52.66 52.75 49.15 50.92 50.99 54.57 52.91 51.85 52.34 51.43 51.67 49.55 49.29 48.96 47.38 44.86
55.85 55.44 55.35 54.86 54.28 54.54 54.35 54.44 54.39 53.90 53.39 52.88 51.75 50.65 52.70 55.79 52.26 55.78 55.71 51.34 42.18 37.64 42.82 40.16 41.53 43.45 43.26 42.64 43.53 45.48 45.31 45.64 44.85 42.74 43.78 47.92 48.75 52.60 53.86 50.56 52.65 50.48 47.87 43.42 41.79 41.29 40.28
55.28 55.43 55.24 54.73 54.60 54.46 54.50 54.52 54.25 53.66 52.92 51.93 50.27 49.01 50.69 54.53 56.08 55.05 54.00 47.31 37.39 40.36 40.47 43.16 42.43 42.85 40.67 42.29 42.67 42.96 42.94 42.86 45.78 44.98 43.26 42.88 41.83 48.24 52.42 51.68 49.69 49.02 48.73 44.06 39.40 41.09 42.70
55.05 54.83 54.87 54.36 54.33 54.42 54.46 54.33 53.70 52.83 52.29 51.16 49.62 55.82 55.25 55.41 54.86 54.50 50.12 42.29 41.24 41.06 42.69 41.51 42.24 40.22 40.57 41.28 41.80 41.71 41.77 41.85 44.44 45.08 41.02 42.43 42.12 49.79 50.90 52.62 52.70 50.20 46.82 50.94 46.86 48.22 45.43
54.97 54.49 54.31 54.30 54.36 54.39 54.25 53.25 52.80 52.40 51.85 50.86 51.73 53.97 52.42 55.59 54.79 52.55 47.53 40.33 42.45 44.35 44.19 43.01 38.71 40.82 38.45 40.31 39.48 40.41 40.79 44.03 43.23 44.67 45.93 43.39 38.51 46.40 49.13 50.93 52.13 51.03 53.50 46.03 47.08 41.16 40.90
54.43 54.49 54.12 54.26 54.44 54.21 53.87 53.61 52.86 52.38 51.40 50.80 51.81 50.78 52.96 55.67 54.39 50.97 44.85 42.51 42.73 45.34 45.16 42.01 40.75 40.14 40.62 39.66 39.94 40.36 39.93 42.80 44.26 43.82 45.45 44.04 41.18 41.69 44.50 46.71 46.80 48.47 47.98 49.36 49.36 47.39 42.77
54.04 54.16 54.44 54.20 53.16 53.85 53.93 53.48 52.90 51.65 50.31 51.09 50.84 47.22 53.64 55.43 49.71 48.42 44.17 41.79 39.76 43.55 45.53 43.42 43.60 42.35 41.09 41.07 39.64 39.46 38.81 41.31 45.01 44.72 41.07 44.39 41.86 38.61 40.94 47.05 51.18 49.72 48.65 49.57 45.24 44.77 47.01
53.81 54.00 53.69 53.91 53.10 53.99 53.80 53.41 52.41 51.48 50.58 51.61 48.32 48.57 53.91 54.13 44.48 42.83 43.13 41.90 42.73 42.29 42.81 42.08 41.06 42.11 42.65 40.32 36.87 40.09 40.93 44.16 45.32 43.57 41.68 44.42 39.34 35.19 38.24 42.31 45.90 45.04 48.51 50.53 49.70 50.44 47.29
53.62 53.22 53.28 53.38 53.61 53.52 53.91 53.51 52.61 51.73 50.87 51.63 49.14 46.53 48.64 49.00 47.53 42.73 40.91 39.84 39.70 43.63 42.96 43.54 42.80 43.69 41.71 40.29 42.29 38.83 39.41 42.67 44.90 44.40 44.57 44.02 40.00 37.61 35.59 38.82 41.50 40.79 45.42 47.43 48.11 45.33 46.90
53.58 53.58 52.90 53.22 53.40 53.75 54.16 53.80 52.86 52.24 51.21 51.02 49.03 44.29 44.74 41.71 42.29 43.21 42.99 41.27 38.75 37.98 42.60 43.67 40.93 40.47 39.12 35.58 36.96 36.94 39.74 40.93 43.16 44.36 44.28 43.79 37.44 39.51 39.83 40.03 39.97 39.81 40.64 42.81 43.30 46.97 45.33
53.48 53.36 52.77 53.46 53.63 53.81 53.91 53.82 53.45 52.41 50.91 52.60 48.24 45.55 47.27 41.21 42.32 39.83 40.51 38.12 37.24 37.92 37.48 37.38 38.22 39.78 40.60 38.05 38.63 37.07 39.90 41.04 39.93 42.69 42.76 43.89 37.07 39.01 36.57 39.26 39.15 37.61 40.45 42.08 42.86 45.42 46.51
53.21 52.86 53.11 53.44 53.55 53.55 53.59 54.09 53.53 52.45 51.15 51.09 50.63 50.00 47.42 41.06 40.90 40.15 39.04 38.33 38.08 40.07 40.56 41.04 40.00 38.71 37.13 38.59 42.45 42.44 44.71 44.28 43.30 40.62 40.11 39.31 38.42 36.71 33.37 38.52 38.74 35.97 41.04 43.34 44.51 46.72 47.23
53.00 52.61 53.17 53.36 53.38 53.56 53.50 53.83 54.11 53.23 51.81 53.25 51.42 51.07 44.76 39.49 41.80 40.57 40.31 41.30 39.37 39.43 38.45 40.96 40.38 38.09 40.92 47.61 46.97 46.15 44.83 44.21 43.53 42.16 41.93 37.28 38.00 37.37 33.87 36.95 28.81 39.92 45.87 47.27 45.99 47.77 49.86
52.63 52.88 52.98 53.04 53.50 53.77 53.77 53.95 53.91 53.21 52.01 54.36 54.11 49.12 45.24 41.15 42.98 41.87 40.09 40.14 40.37 42.83 40.56 40.45 42.26 45.73 48.36 44.45 38.77 36.31 36.85 37.05 38.97 41.63 41.84 40.53 37.70 34.20 31.63 33.22 37.28 41.23 43.56 43.45 41.78 45.57 51.20
52.81 52.75 52.65 53.16 53.49 53.66 53.79 53.83 54.06 53.25 52.70 55.46 53.46 53.39 47.84 45.32 42.64 44.23 41.14 41.06 38.77 38.65 42.18 41.12 46.11 47.95 45.92 40.23 37.26 30.88 31.06 32.01 31.97 34.30 42.05 40.52 40.89 35.28 33.92 28.14 28.59 38.51 42.26 45.51 47.48 43.37 50.96
52.36 52.56 52.81 53.08 53.29 53.50 53.75 53.69 54.09 54.07 53.22 54.45 52.43 54.29 50.98 46.67 48.17 46.73 42.29 40.20 44.11 41.63 39.29 41.81 42.41 41.64 42.69 37.31 33.63 33.36 33.39 34.81 30.81 31.09 32.79 34.13 34.03 32.11 32.97 30.96 36.02 43.06 42.98 44.79 37.64 42.24 50.13
52.13 52.32 52.61 53.04 53.31 53.60 53.96 53.67 54.11 54.45 53.66 54.45 52.36 55.24 51.19 48.33 49.41 49.10 47.93 44.82 45.11 43.81 38.47 43.48 42.27 41.14 38.20 34.88 34.78 34.85 33.72 34.27 34.48 36.41 34.90 33.91 33.36 33.09 34.36 31.65 29.12 44.78 43.60 37.06 41.55 47.04 48.18
51.96 52.25 52.69 52.83 53.43 53.83 53.98 53.79 54.07 54.77 53.86 53.23 51.89 53.17 53.58 48.20 50.00 52.62 51.64 51.39 49.13 47.61 43.79 45.57 42.66 40.84 39.57 35.69 36.73 36.21 33.90 35.49 34.43 32.06 39.03 33.14 37.48 35.13 36.83 37.63 43.87 44.12 43.15 45.11 45.66 46.10 47.28

GFSGBSN_sfc_wetblb_063.txt.gz
Wetbulb
56.63 56.77 56.71 56.73 56.55 56.57 56.17 56.09 56.30 56.62 56.57 56.44 56.39 56.72 56.85 56.50 56.36 56.80 57.17 57.14 56.81 56.72 57.01 57.62 58.86 58.18 58.10 56.85 54.30 60.84 66.99 68.37 67.86 62.10 64.98 65.71 63.72 62.92 59.60 61.65 63.51 63.36 63.77 67.00 67.89 67.86 68.31
56.71 56.68 56.71 56.39 56.36 56.20 55.99 55.81 55.92 56.07 56.16 56.43 56.74 56.72 56.53 56.65 56.50 56.52 56.58 56.51 56.53 56.74 57.16 58.70 59.72 58.42 58.88 53.15 58.68 60.55 64.86 66.80 64.69 60.23 64.01 65.48 62.97 63.80 60.75 59.74 60.12 62.25 63.62 64.98 67.22 67.63 67.59
56.38 56.38 56.30 56.32 56.09 55.78 55.52 55.27 55.52 55.66 55.60 55.89 56.36 56.36 56.30 56.34 55.90 56.06 56.13 55.65 57.70 56.95 58.75 59.67 59.37 59.93 58.64 54.79 60.01 60.97 64.81 64.20 65.21 60.93 61.92 65.44 64.29 62.14 60.00 57.23 60.17 60.86 59.27 62.42 64.48 66.35 65.38
56.42 56.42 56.14 55.98 56.21 56.24 55.89 55.50 55.19 55.50 55.53 55.97 56.17 56.11 56.11 56.01 55.60 55.45 55.17 55.12 58.53 58.19 58.70 59.43 59.84 62.58 54.53 57.92 60.91 59.40 63.32 63.56 64.07 63.08 62.49 65.89 63.59 60.33 59.58 59.14 56.65 56.91 58.22 56.46 62.55 65.22 66.73
56.50 56.39 56.21 56.09 56.19 56.16 56.06 55.89 55.83 55.73 55.60 55.64 55.72 55.94 55.98 55.86 55.59 55.08 54.58 54.73 59.77 59.56 59.75 60.65 61.60 61.52 52.21 58.03 55.44 57.00 61.69 61.45 64.38 64.63 63.74 63.70 62.22 58.34 58.70 54.07 52.43 53.55 52.15 54.62 57.70 63.14 63.97
56.32 56.25 56.00 55.94 55.78 56.02 55.77 55.67 55.44 55.36 55.37 55.31 55.35 55.32 55.36 55.26 54.73 54.05 54.11 54.38 59.73 59.92 61.08 62.74 61.23 55.88 53.12 51.43 54.66 55.85 58.50 61.73 62.93 59.94 60.19 59.21 58.04 54.85 55.68 53.47 47.11 49.73 50.85 53.83 55.49 62.59 64.03
56.28 56.02 55.98 55.70 55.49 55.79 55.73 55.36 55.40 55.29 55.21 55.41 55.14 54.89 54.89 54.54 54.05 53.20 54.99 58.15 57.53 55.83 56.54 51.09 51.35 50.34 51.38 54.40 56.77 57.02 60.47 61.04 61.06 58.16 52.55 55.97 52.42 49.73 53.09 54.62 54.00 52.73 52.30 52.84 56.91 63.20 62.32
56.11 55.95 55.78 55.57 55.43 55.75 55.58 55.35 55.12 55.26 55.50 55.28 54.85 54.63 54.36 54.05 53.50 52.97 55.48 53.74 52.92 54.15 49.75 51.58 51.06 51.21 52.28 54.02 51.02 54.97 61.56 56.29 56.25 53.78 54.92 51.94 48.90 53.18 54.03 53.82 52.34 51.85 51.24 52.14 56.03 60.82 61.88
55.98 55.74 55.49 55.45 55.54 55.60 55.35 55.22 55.01 55.09 55.11 54.87 54.69 54.38 53.83 53.24 52.63 55.33 55.35 54.02 57.35 56.58 49.61 49.84 50.83 50.00 50.83 52.44 50.13 50.95 56.36 57.45 54.06 53.33 54.09 51.27 51.69 53.48 52.88 52.07 50.93 51.09 50.49 51.60 53.68 56.63 62.13
56.40 56.19 56.05 55.78 55.66 55.51 55.10 55.04 55.11 55.03 54.75 54.67 54.46 53.93 53.11 51.91 52.23 56.88 55.37 57.25 57.84 56.61 46.66 46.46 47.14 49.12 50.90 51.23 48.77 52.84 55.45 54.79 53.86 52.13 52.16 52.05 54.22 51.74 51.25 50.32 52.01 49.30 52.41 51.59 52.07 53.90 51.95
56.50 56.19 55.89 55.80 55.39 54.88 54.89 54.89 54.89 54.85 54.54 54.11 53.95 53.29 52.23 50.63 56.99 55.57 55.99 58.19 57.23 54.57 38.52 46.34 47.40 52.43 50.87 48.89 50.06 50.36 54.37 53.56 49.88 51.13 53.19 51.01 51.34 51.03 50.35 50.75 52.14 50.43 53.34 51.52 50.63 50.20 53.33
56.18 56.04 55.29 55.12 54.61 54.69 54.85 54.72 54.70 54.52 54.05 53.62 53.33 52.43 51.72 56.72 58.32 56.86 58.26 57.73 54.38 43.88 37.21 43.42 47.07 46.13 47.13 48.05 48.22 50.06 50.64 52.74 52.82 50.36 51.57 51.79 56.16 53.62 52.48 53.71 53.19 53.70 51.68 51.43 51.31 49.30 44.85
55.82 55.51 55.04 54.79 54.48 54.79 54.64 54.62 54.36 53.75 53.15 52.67 51.68 50.63 52.43 56.88 54.68 58.17 58.12 54.75 44.61 39.96 46.66 43.55 44.44 45.93 45.73 45.71 46.33 47.30 47.38 47.78 45.81 44.46 44.36 48.02 49.48 53.43 55.01 51.64 53.56 52.38 50.04 44.58 43.37 43.60 42.76
55.43 55.20 55.49 55.08 54.65 54.64 54.64 54.44 53.61 53.31 52.82 51.90 50.31 49.16 55.31 57.21 58.72 57.82 56.14 50.06 40.65 44.29 43.76 46.25 45.11 45.42 43.46 45.52 46.07 45.52 45.97 45.19 48.50 47.08 45.21 43.87 43.40 49.27 52.24 52.10 51.08 50.93 50.30 46.02 41.14 42.73 44.76
55.16 54.79 55.07 54.91 54.69 54.52 54.18 53.52 53.34 53.02 52.75 51.58 49.81 56.92 57.65 57.82 58.16 57.01 52.35 45.08 44.64 45.64 46.03 44.91 45.71 43.23 43.95 44.63 43.88 44.33 45.22 45.14 46.79 47.88 43.46 43.31 43.41 51.03 51.33 52.50 52.92 51.20 48.44 52.09 48.27 50.06 47.36
54.87 54.58 54.46 54.90 54.47 53.98 53.84 54.00 53.42 53.25 52.47 51.14 55.05 55.21 55.17 58.68 58.28 55.35 49.95 43.62 46.61 47.89 47.27 46.62 42.26 44.39 42.30 44.07 42.48 43.81 44.41 46.92 45.89 47.17 48.28 45.74 41.83 49.27 49.17 52.04 53.04 51.78 54.14 47.47 48.01 42.54 42.46
54.54 54.40 54.44 53.85 54.06 53.84 54.31 54.16 53.52 52.94 51.99 50.81 54.62 53.38 56.09 58.79 57.60 53.17 47.14 46.77 46.55 48.58 47.89 45.39 44.60 43.94 43.90 43.45 44.39 43.36 44.09 45.79 46.47 46.51 47.71 46.28 44.51 44.58 47.30 47.47 47.74 48.80 48.77 50.71 51.04 48.47 44.14
54.21 54.21 53.81 53.36 54.00 54.21 54.57 54.22 53.31 52.13 50.96 52.91 54.51 50.54 57.04 58.31 51.23 52.19 48.17 46.26 42.23 47.01 48.42 46.58 46.25 45.15 43.99 44.71 43.38 42.93 42.49 45.11 47.60 46.97 43.72 47.54 44.18 41.05 43.58 48.25 49.24 49.11 48.57 48.52 46.34 46.32 48.53
54.04 54.23 53.33 54.13 54.36 54.53 54.73 54.22 52.99 51.89 51.60 53.18 52.71 52.96 57.04 56.83 48.17 47.16 47.20 45.85 46.24 45.93 46.27 45.61 44.39 45.42 46.21 43.07 39.64 43.16 43.84 47.43 47.08 45.79 44.25 46.91 42.40 38.18 40.42 44.44 47.39 45.59 48.92 50.53 50.36 49.96 48.32
53.96 53.80 53.67 54.13 54.49 54.74 54.77 54.03 52.74 52.21 52.01 52.82 53.09 50.30 52.79 52.67 51.56 47.34 45.99 44.21 43.67 46.77 45.56 46.10 45.39 46.22 44.15 42.42 44.70 41.36 42.38 44.73 46.62 46.52 46.63 46.33 43.20 41.36 38.09 41.43 44.50 43.66 44.96 48.57 49.04 46.25 46.85
53.92 53.60 53.46 53.97 54.11 54.46 54.69 54.07 53.15 52.39 52.04 53.14 53.19 48.29 49.45 45.35 46.67 47.45 47.38 44.89 42.61 41.29 46.15 46.08 44.00 42.97 42.05 40.22 41.05 41.04 43.28 44.30 45.77 46.51 45.64 44.93 39.07 41.70 42.22 43.23 43.50 42.66 43.51 46.47 46.52 49.06 46.73
53.55 53.33 53.65 54.03 54.13 54.12 54.54 54.44 53.77 52.80 51.60 55.40 51.33 50.64 50.90 48.12 47.13 45.31 44.16 42.08 37.89 39.70 41.13 41.34 41.77 43.21 42.74 40.92 41.23 39.81 40.86 41.48 41.45 45.43 43.75 45.34 38.62 41.11 38.82 41.92 42.63 40.56 42.55 43.62 45.84 48.04 48.73
53.18 53.28 53.65 53.70 53.92 54.15 54.21 54.59 54.32 52.95 51.65 54.41 54.47 54.01 51.99 43.18 43.15 43.03 43.07 42.47 41.02 42.57 43.46 44.66 43.36 42.39 41.12 43.24 46.15 46.62 46.50 46.35 45.35 42.01 42.04 43.11 40.21 37.54 34.59 40.33 41.05 37.55 41.28 42.58 43.99 46.82 47.47
53.15 53.56 53.48 53.82 54.07 54.21 54.19 54.53 54.71 53.62 52.22 56.20 54.66 54.76 50.20 44.71 45.67 43.32 42.54 43.34 41.37 42.06 41.24 42.75 44.18 41.16 45.37 49.39 48.13 47.69 46.69 44.99 44.63 44.63 45.39 41.75 40.42 38.78 34.87 38.32 29.26 41.70 46.02 46.48 45.40 46.37 48.94
53.17 53.25 53.38 53.57 54.10 54.17 54.27 54.54 54.44 53.73 53.42 56.94 56.56 53.80 50.35 46.24 46.94 45.78 44.57 41.95 44.24 44.92 42.33 43.37 43.49 47.08 47.97 45.59 39.39 38.40 40.38 39.69 41.75 42.87 43.84 44.04 41.22 35.56 31.35 33.31 38.01 41.53 45.64 45.90 46.06 47.17 49.55
52.84 53.11 53.23 53.60 53.92 53.99 54.18 54.45 54.20 53.51 53.62 57.04 54.74 56.33 53.54 49.46 46.45 47.36 45.88 45.54 43.09 44.26 43.50 43.91 47.78 50.37 48.10 43.81 38.69 33.51 33.89 35.52 35.04 36.85 43.90 42.90 43.41 37.53 35.43 30.51 28.56 40.61 46.08 49.01 49.86 43.53 52.99
52.67 52.84 53.17 53.58 53.84 54.09 54.37 54.18 54.33 53.70 53.66 55.76 55.91 57.13 54.18 50.30 50.81 50.82 46.11 44.72 46.27 44.42 41.47 43.01 44.28 43.91 46.54 40.55 37.19 34.91 35.69 36.48 32.35 33.07 35.33 37.36 37.85 35.09 34.89 33.02 36.92 43.82 46.91 48.39 38.75 41.33 48.61
52.38 52.71 52.90 53.35 53.67 54.25 54.31 53.93 54.24 54.41 54.00 55.04 55.69 58.29 53.62 52.19 51.61 52.28 51.68 49.01 48.41 46.16 41.71 46.44 42.51 43.66 42.67 37.29 36.56 36.64 35.59 36.12 34.88 38.83 36.69 35.27 35.35 35.03 36.41 33.16 30.10 47.92 47.15 40.73 46.22 48.70 49.34
52.03 52.59 52.76 53.40 53.61 53.97 54.06 53.82 54.10 54.61 54.36 53.66 56.88 58.38 57.17 52.50 52.83 55.26 54.91 54.17 51.93 50.77 48.13 47.99 43.45 42.66 40.99 37.21 37.64 37.75 35.23 36.96 35.41 34.04 42.30 34.62 38.44 37.57 38.58 38.31 46.33 46.89 45.50 49.10 49.49 47.96 46.98

GFSGBSN_sfc_wetblb_069.txt.gz
Wetbulb
57.68 57.64 57.34 57.23 57.27 56.88 56.24 55.83 56.01 56.23 55.91 56.12 56.43 56.71 56.95 56.89 57.03 57.27 57.26 57.23 57.11 57.09 59.14 58.41 58.09 59.14 54.74 51.98 53.30 63.20 70.21 68.88 63.21 58.58 54.65 54.64 60.13 59.78 56.96 59.72 61.21 60.16 61.87 63.90 65.78 66.43 66.64
57.38 57.32 57.08 56.95 57.00 56.76 56.44 55.91 55.65 55.98 55.79 56.09 56.48 56.91 56.97 56.95 56.92 56.84 57.31 56.91 56.41 56.71 59.67 58.67 58.76 59.47 51.71 49.21 59.75 64.04 64.74 63.62 59.78 57.34 54.68 55.75 62.30 63.05 60.01 59.77 58.47 60.65 61.39 62.09 65.68 65.82 65.58
57.39 57.27 57.05 56.90 56.66 56.39 56.28 55.98 55.63 55.46 55.52 55.85 56.50 56.76 56.86 56.86 56.48 56.53 56.27 55.99 56.04 56.60 60.15 60.29 60.81 58.51 55.75 55.08 59.02 62.01 62.62 62.34 60.13 58.35 54.01 60.48 64.61 62.35 60.57 57.65 60.55 58.47 53.60 56.00 60.45 64.91 64.80
57.87 57.22 56.77 56.60 56.50 56.68 56.31 55.77 55.63 55.69 55.82 56.03 56.27 56.33 56.62 56.18 56.12 56.22 55.90 55.23 55.52 56.76 60.30 59.62 60.30 57.31 54.10 61.65 55.16 57.48 57.29 60.55 62.59 59.58 55.78 59.81 62.18 60.90 58.29 59.27 57.73 53.80 50.29 47.10 55.18 60.65 65.27
57.82 57.62 57.05 56.67 56.80 56.51 56.40 56.26 55.74 55.81 56.07 56.06 56.19 56.21 56.25 56.16 55.90 55.39 54.59 54.86 55.98 57.28 60.75 60.31 57.02 54.63 54.42 59.79 53.42 55.53 55.82 58.69 61.21 60.09 56.79 57.85 56.71 56.95 57.22 50.45 47.76 49.97 44.07 47.38 51.04 57.19 60.79
58.32 57.72 57.05 56.12 56.32 56.39 56.25 55.85 55.75 55.93 55.84 55.84 55.67 55.71 55.57 55.37 54.90 54.33 53.82 54.93 57.20 56.67 60.03 60.73 59.28 52.29 57.01 52.37 52.89 54.11 54.89 59.26 58.71 58.13 56.25 54.45 53.61 52.34 51.23 45.42 40.74 44.59 44.37 46.37 47.89 54.50 57.22
58.37 57.43 56.66 56.03 56.00 56.32 55.99 55.57 55.60 55.70 55.84 55.65 55.61 55.23 54.92 54.61 54.10 53.43 51.69 51.06 51.37 49.79 52.17 53.21 52.28 55.42 52.38 52.64 54.72 53.41 54.57 57.02 58.71 54.64 49.18 53.23 47.04 46.14 48.80 50.03 50.15 49.89 48.86 47.87 50.06 54.05 53.54
58.21 57.20 56.48 56.20 56.08 56.27 55.73 55.52 55.61 55.43 55.57 55.49 55.15 54.64 54.35 54.14 53.53 52.95 50.87 48.60 49.75 49.65 45.00 52.37 53.99 53.34 51.15 50.92 49.94 54.62 56.56 51.05 54.32 50.77 53.20 50.37 46.40 51.67 54.07 53.13 51.29 49.49 47.80 47.64 50.65 52.20 56.18
57.79 57.07 56.74 56.43 56.17 55.91 55.32 55.33 55.24 55.22 55.10 54.84 54.66 54.27 53.94 53.42 52.69 52.53 50.42 51.90 54.37 52.51 43.78 48.65 50.71 49.46 48.33 47.69 48.45 52.28 54.55 54.27 52.26 51.11 50.46 45.80 50.48 54.83 53.45 51.61 48.72 47.78 45.85 46.92 47.42 50.38 56.24
57.76 57.08 56.57 56.27 55.92 55.52 55.33 55.22 55.14 54.74 54.47 54.43 54.41 54.23 53.59 52.50 50.53 53.34 53.11 53.65 54.33 53.61 39.06 45.49 45.46 47.34 48.78 48.10 45.42 53.74 53.66 51.78 51.48 48.88 50.36 48.96 52.25 50.95 50.86 49.78 49.34 41.58 49.38 50.21 48.84 45.42 40.27
57.29 56.50 56.29 55.91 55.64 55.53 55.31 54.92 54.56 54.31 54.17 54.31 54.31 53.79 52.67 51.44 49.03 50.64 53.41 54.32 52.47 49.69 31.92 46.39 45.77 50.37 47.09 44.38 47.34 48.25 52.94 50.26 47.81 48.86 47.98 46.87 49.75 49.99 48.88 49.34 49.81 46.48 50.76 48.85 48.63 44.61 41.16
56.28 56.22 55.97 55.83 55.54 54.95 53.95 54.11 54.19 54.39 54.10 54.14 53.92 53.16 52.29 53.62 51.60 54.12 57.09 54.61 51.75 38.06 34.63 43.40 46.81 45.12 43.63 45.07 46.47 49.64 49.79 49.85 49.90 46.15 46.33 46.58 50.85 49.16 49.35 52.31 51.50 51.66 48.36 46.97 45.33 42.32 37.36
56.18 55.93 55.83 55.54 55.01 53.61 53.50 54.01 54.17 54.24 53.92 53.51 52.46 51.33 50.15 53.28 52.08 56.46 55.37 51.25 38.16 34.05 46.09 42.51 42.46 43.67 43.41 43.45 45.02 44.78 45.39 43.39 39.97 35.09 36.70 43.97 44.01 46.81 49.95 47.68 49.63 48.06 42.21 35.05 33.79 35.33 36.01
55.90 55.58 55.34 53.98 53.63 53.32 53.85 54.35 54.47 54.12 53.63 52.64 50.94 49.78 52.41 53.47 56.06 56.47 52.75 44.75 36.67 43.85 43.02 46.02 44.74 43.23 41.43 44.58 43.38 45.31 43.00 40.73 44.62 43.15 38.36 36.78 37.32 43.31 47.86 46.97 45.30 44.86 41.85 36.28 31.07 33.17 36.98
55.59 55.54 55.34 53.72 53.52 53.48 54.31 54.55 54.35 53.84 53.05 51.89 50.22 54.01 52.52 55.49 56.00 56.09 47.69 39.94 39.32 43.01 45.92 44.95 45.20 40.29 40.43 43.23 42.08 42.98 41.32 41.19 44.25 44.69 37.23 36.55 38.55 46.99 48.07 48.27 48.85 45.45 41.63 44.45 39.08 42.06 37.83
55.71 55.46 55.21 54.22 53.74 54.45 54.82 54.65 54.22 53.77 52.81 51.56 49.53 52.34 54.29 57.09 56.73 52.61 45.08 43.17 43.64 46.97 46.77 46.31 40.54 43.63 40.16 42.56 40.44 40.50 40.78 44.90 45.21 46.77 44.78 40.36 34.16 43.02 46.37 47.30 48.04 46.00 46.56 38.51 39.05 32.35 31.62
55.38 55.39 55.01 54.60 54.50 54.94 55.09 54.70 54.18 53.43 52.28 51.36 51.79 51.14 55.20 56.13 55.92 49.68 43.11 43.96 46.11 48.50 48.39 44.60 42.76 41.97 42.17 41.89 42.74 41.49 41.82 44.52 46.47 45.67 44.80 40.85 36.62 38.55 43.27 40.52 40.91 42.55 40.79 40.43 39.87 38.37 34.21
55.13 55.13 54.73 54.63 54.72 54.96 55.17 54.62 53.82 52.66 51.53 51.98 52.74 47.46 55.50 56.81 47.65 48.97 42.93 45.02 45.29 46.63 48.75 46.64 46.22 44.27 42.48 42.81 41.01 41.37 41.79 43.32 47.40 45.65 40.85 42.17 35.88 32.54 37.70 44.31 46.18 43.92 40.37 38.94 35.67 36.33 39.46
54.97 54.60 54.63 54.63 54.98 55.13 55.19 54.47 53.59 52.46 52.35 49.24 49.61 51.73 56.57 55.30 42.95 43.93 46.57 46.31 45.91 44.93 44.78 44.66 44.37 45.02 44.68 41.07 37.41 42.02 43.10 47.47 47.49 45.36 40.12 41.26 35.19 29.82 34.03 37.93 41.92 40.49 42.74 41.27 39.79 38.32 37.24
54.87 54.45 54.22 54.55 55.04 55.39 55.09 54.39 53.33 52.86 52.71 50.38 50.89 46.01 50.62 51.36 49.74 45.63 44.31 44.30 43.12 47.56 45.23 46.14 44.96 45.26 42.58 40.23 41.33 39.38 41.60 45.57 47.00 46.45 49.42 44.81 34.54 31.81 28.54 34.12 38.68 37.72 40.71 41.77 39.17 32.96 34.77
54.15 54.24 54.65 54.56 55.25 55.56 55.37 54.80 53.88 53.08 52.42 51.25 52.32 46.89 48.46 41.99 44.51 44.94 44.98 43.92 41.81 40.47 45.24 45.57 44.38 42.98 40.80 36.58 38.69 38.90 41.82 42.85 45.69 48.91 44.40 39.32 31.15 34.52 36.63 39.25 39.79 39.28 39.65 40.71 38.62 39.27 33.98
54.33 54.30 54.60 54.38 55.30 55.58 55.61 54.90 54.41 53.49 52.17 53.54 48.67 48.08 48.61 45.92 47.03 44.55 43.67 42.04 41.01 41.46 42.69 41.02 40.60 42.27 42.08 36.62 39.20 36.83 39.37 38.79 38.45 42.77 40.92 40.77 33.63 36.28 35.39 39.70 39.25 37.52 40.00 41.20 41.32 41.52 41.25
53.99 53.87 54.14 54.87 55.28 55.56 55.47 55.21 54.80 53.59 52.68 53.85 54.73 55.21 50.79 45.74 44.93 42.20 41.46 42.49 42.15 43.78 44.74 45.10 43.24 41.20 40.60 41.49 43.65 43.29 42.96 42.34 41.28 38.64 37.97 37.64 34.57 33.12 29.85 36.68 36.18 32.39 37.82 39.47 40.58 42.62 41.87
54.04 53.70 53.63 54.41 54.55 55.32 55.46 55.72 55.41 54.43 53.06 53.68 54.96 53.72 48.88 43.12 44.72 43.63 44.67 44.83 43.68 44.28 42.50 45.10 44.67 41.08 44.68 47.75 46.32 45.00 43.44 42.36 42.49 41.19 40.57 35.60 35.41 33.20 29.17 31.39 24.99 35.74 42.27 43.16 41.34 42.85 46.41
53.59 53.47 53.88 54.19 54.44 55.28 55.59 55.92 55.94 55.39 54.08 53.80 56.87 53.94 50.77 44.17 46.71 46.47 46.27 45.15 46.44 45.12 43.62 44.81 45.89 46.17 47.39 45.54 38.67 35.27 36.42 37.88 39.54 41.65 40.76 39.72 36.40 31.18 28.40 27.57 32.98 36.90 39.55 41.92 40.82 40.43 46.65
53.47 53.39 53.57 53.88 54.38 54.84 55.76 55.88 56.06 55.79 54.67 55.54 56.52 57.71 54.21 48.53 44.77 48.80 46.53 46.63 42.31 42.08 44.49 45.15 48.67 48.77 47.33 41.40 37.63 32.24 31.67 34.38 33.77 36.38 40.88 39.73 39.45 35.76 31.68 26.37 24.88 35.46 43.95 46.88 45.78 34.58 45.53
53.34 53.05 53.51 53.82 54.28 54.79 55.27 55.44 56.00 56.20 55.29 53.43 55.73 58.42 54.77 49.44 49.89 49.69 45.23 45.01 47.50 45.01 42.20 43.89 45.47 43.69 46.08 39.32 35.56 32.77 32.10 36.18 30.76 31.27 33.37 33.90 34.33 31.35 31.04 30.34 33.30 41.82 44.81 46.49 33.44 34.89 45.44
53.12 53.03 53.18 53.53 53.97 54.44 54.85 55.37 56.06 56.27 56.11 53.83 55.38 58.69 53.78 50.68 51.03 52.64 51.97 48.13 47.57 46.17 42.22 44.57 43.08 42.12 40.17 36.58 35.15 33.73 32.68 34.55 33.63 35.63 34.06 34.24 33.74 30.74 32.38 28.51 26.54 43.67 44.02 37.59 41.39 43.21 43.94
53.18 53.05 53.01 53.30 53.80 54.23 54.80 55.51 55.54 55.77 55.87 54.85 54.81 59.12 58.84 53.34 51.99 56.13 55.68 55.01 53.75 51.29 47.19 46.50 43.25 42.15 40.96 38.26 37.49 36.57 32.79 34.30 33.06 29.10 37.27 31.81 34.62 31.98 35.39 35.89 41.41 43.46 42.11 43.70 43.88 41.64 43.24

GFSGBSN_sfc_wetblb_072.txt.gz
Wetbulb
58.09 57.82 57.60 57.41 57.22 57.09 56.57 56.10 55.92 55.93 55.82 56.54 56.82 56.72 56.88 56.92 57.05 57.28 57.33 57.13 56.77 56.89 57.22 59.36 57.90 58.59 53.87 49.80 51.29 62.46 70.98 69.96 64.52 57.12 52.83 52.26 54.72 56.41 52.69 56.65 59.33 57.57 59.82 62.34 63.94 66.91 66.63
58.06 57.72 57.51 57.30 56.80 56.61 56.23 56.01 55.64 55.72 55.76 56.18 56.31 56.67 56.56 56.56 56.69 56.85 56.85 56.50 56.15 56.46 57.13 60.29 58.79 59.31 49.13 46.67 60.16 64.48 64.46 62.74 58.87 55.52 53.30 52.58 54.62 60.88 58.08 56.98 56.86 59.86 59.59 59.14 60.56 66.05 66.41
58.22 57.69 57.27 56.93 56.59 56.38 56.15 55.69 55.46 55.33 55.61 55.80 56.10 56.38 56.85 56.50 56.51 56.46 56.02 55.70 55.72 56.25 57.08 60.45 60.63 58.14 52.82 51.36 61.03 63.53 61.74 59.38 58.36 55.82 51.76 54.10 55.23 56.05 59.32 56.10 60.18 58.80 53.26 53.94 63.59 64.99 63.43
58.78 58.01 57.34 56.83 56.83 56.73 56.25 55.49 55.22 55.30 55.61 55.84 55.88 55.91 55.91 55.89 55.95 55.66 55.43 54.87 55.21 56.33 57.19 60.33 60.84 56.02 50.17 62.47 61.07 62.42 61.09 60.27 59.27 57.12 54.51 55.49 58.59 57.21 57.28 58.76 55.04 51.14 48.67 44.42 55.71 63.94 64.47
59.16 58.50 57.55 57.24 56.85 56.66 56.51 55.81 55.44 55.66 55.95 56.07 56.07 55.85 55.53 55.55 55.43 55.34 54.50 54.42 55.76 57.44 57.97 60.34 53.88 52.09 51.40 63.25 51.60 53.34 55.92 54.28 59.04 56.89 54.72 57.27 53.18 49.39 52.34 50.17 45.20 46.66 42.84 46.06 48.73 62.78 63.05
59.07 58.58 57.33 56.70 56.20 56.41 56.18 55.78 55.80 55.87 55.81 55.69 55.63 55.40 55.12 55.06 54.83 54.24 53.79 54.03 55.07 57.13 58.63 59.95 58.41 49.60 53.89 54.48 51.65 53.10 52.62 58.60 58.36 57.17 55.08 52.62 48.94 45.92 47.03 45.04 38.10 42.16 42.88 43.58 45.05 50.60 61.17
58.87 58.12 57.13 56.55 55.89 56.21 56.00 55.74 55.55 55.49 55.63 55.55 55.34 55.08 54.77 54.69 54.20 53.56 51.27 47.11 45.63 46.58 50.66 49.05 50.80 52.73 53.53 51.22 53.80 51.17 52.58 55.04 56.56 53.05 46.18 49.74 44.74 41.83 46.96 48.62 48.49 47.26 44.86 45.08 49.14 52.02 49.96
58.57 57.97 56.63 56.12 55.69 55.90 55.55 55.38 55.52 55.28 55.10 55.28 54.96 54.65 54.48 54.28 53.56 52.93 49.73 44.69 47.00 47.91 42.41 50.50 53.17 53.46 55.66 51.44 47.64 51.06 52.72 49.36 52.01 46.73 48.57 47.41 43.11 49.02 51.91 51.71 49.70 47.90 45.15 44.60 48.16 51.43 56.91
57.97 56.92 56.23 55.96 55.88 55.69 55.59 55.22 55.03 54.93 54.89 54.93 54.71 54.56 54.13 53.61 52.83 50.69 47.09 48.39 52.03 49.75 40.81 46.03 48.41 48.31 48.98 46.30 46.35 50.55 51.80 49.81 50.52 49.13 49.06 45.39 49.19 53.17 51.53 49.96 48.65 45.99 43.33 45.48 45.30 54.27 58.02
56.69 56.36 56.25 56.03 55.75 55.61 54.32 53.82 54.63 54.65 54.79 54.71 54.67 54.48 53.54 52.04 48.55 47.37 48.53 50.83 50.34 48.92 35.38 42.00 43.58 45.46 46.79 46.80 43.54 53.92 54.48 50.58 49.80 48.54 50.02 46.51 51.01 49.86 49.35 48.73 48.12 40.11 47.67 48.12 47.34 43.06 38.78
56.56 56.30 55.89 55.73 55.47 54.24 53.68 53.65 54.46 54.75 54.58 54.52 54.42 53.95 52.69 51.32 44.14 47.14 51.63 53.43 50.11 46.38 30.27 45.57 42.48 48.41 44.62 42.84 45.37 47.17 51.16 48.91 45.68 46.29 44.01 43.86 47.82 47.94 47.19 47.42 49.51 46.84 50.06 46.86 46.47 41.63 38.93
56.19 55.58 55.52 54.30 54.00 53.78 53.29 54.04 54.56 54.67 54.48 54.34 53.97 53.01 52.09 49.09 46.43 49.69 52.08 51.08 47.25 35.77 32.93 41.63 44.82 43.06 41.60 42.07 43.88 47.62 48.20 48.46 48.31 44.40 43.22 43.45 47.67 47.57 47.82 50.47 50.08 50.85 46.56 43.74 41.30 39.25 34.21
55.83 55.62 55.51 54.43 53.93 53.59 54.08 54.48 54.77 54.42 54.05 53.48 52.45 51.32 50.14 50.82 47.20 50.45 51.40 46.31 35.55 30.42 43.64 40.39 39.46 40.97 39.98 40.40 42.07 43.39 43.99 40.53 37.93 33.67 34.70 41.73 43.53 44.00 46.52 43.25 47.32 45.59 39.12 33.07 33.22 32.93 32.43
55.64 55.73 55.43 54.85 54.62 54.43 54.75 54.99 54.62 54.11 53.58 52.68 50.99 50.05 49.72 51.08 48.42 49.15 47.17 41.24 32.62 41.19 39.58 44.15 43.38 40.24 38.56 41.32 40.63 42.93 40.84 37.80 42.78 38.88 35.01 34.45 35.21 42.30 45.97 41.77 41.44 42.49 39.46 34.26 29.41 30.30 33.45
55.33 55.53 55.26 55.04 54.67 54.73 55.05 54.83 54.32 53.85 53.21 52.04 49.96 47.90 47.43 49.94 51.41 49.05 43.16 35.59 34.00 38.79 43.36 42.25 42.26 38.39 38.91 41.46 41.11 41.22 40.24 39.13 42.47 41.01 34.83 33.12 35.86 45.19 46.54 45.58 43.69 42.61 39.26 41.61 35.85 33.25 33.96
55.59 55.35 55.16 54.84 54.69 54.85 54.99 54.91 54.28 53.75 53.03 51.85 45.60 46.17 47.88 53.69 51.39 47.00 40.66 36.72 38.98 45.01 45.09 43.28 36.72 40.10 35.95 39.03 39.01 37.67 38.87 42.74 42.58 44.20 40.36 36.94 32.62 39.31 45.24 45.02 44.54 40.28 42.93 37.17 34.87 29.82 29.08
55.34 55.24 54.50 55.06 54.90 55.01 55.18 55.05 54.34 53.50 52.66 51.38 47.79 45.93 51.02 50.91 50.72 44.18 35.13 36.90 42.94 46.29 46.25 41.96 39.31 37.73 37.94 37.27 38.51 37.23 38.07 42.55 44.69 43.42 42.25 36.20 33.84 36.11 40.83 37.27 36.57 38.11 36.52 36.02 35.35 35.18 31.37
55.28 54.85 54.34 54.72 54.77 55.13 55.28 54.99 54.08 52.54 51.52 48.69 45.04 40.69 52.64 51.08 41.62 38.74 35.99 39.36 45.04 43.20 45.12 43.02 42.82 40.59 38.32 39.05 37.56 37.31 38.26 40.81 45.97 43.37 38.32 38.05 32.34 30.07 33.44 41.24 43.45 40.19 36.55 33.51 30.18 30.72 33.79
55.06 54.75 54.58 54.17 54.58 55.28 55.52 54.77 53.73 52.37 51.65 46.53 43.42 44.45 50.50 48.95 36.00 35.99 39.51 42.92 44.11 42.25 42.29 41.98 41.19 41.60 40.89 36.83 34.52 39.07 40.46 45.53 46.47 43.12 37.44 38.61 30.67 26.74 31.40 34.54 38.44 37.07 38.63 35.23 33.89 30.87 30.89
54.87 54.60 54.34 54.46 54.81 55.61 55.46 54.54 53.43 52.79 52.25 46.91 44.24 39.04 42.64 43.03 40.32 38.17 37.40 39.13 39.59 45.66 43.68 43.61 41.55 41.39 38.47 36.43 36.94 36.28 38.65 43.82 47.01 45.75 50.28 42.66 30.60 29.14 25.56 29.53 34.50 34.10 37.56 38.41 33.03 27.80 29.51
54.39 54.09 54.64 54.90 55.43 55.71 55.62 54.85 53.95 52.89 52.20 47.76 43.72 39.13 40.89 36.35 38.58 38.93 39.05 39.10 39.16 37.93 42.32 42.05 40.33 40.59 36.58 32.54 34.07 34.64 37.53 38.79 42.90 46.83 42.23 36.46 28.68 31.17 32.04 37.24 38.17 37.41 37.39 38.22 34.44 34.20 30.26
54.16 54.19 54.47 55.04 55.47 55.73 55.60 55.21 54.56 53.30 52.05 47.98 42.73 42.16 42.41 37.81 40.07 39.07 38.09 36.08 38.29 38.92 38.64 37.65 37.55 40.47 38.34 33.69 33.88 32.62 34.82 33.99 33.66 38.14 37.88 36.85 30.96 33.04 32.26 37.83 36.94 34.99 37.71 38.89 38.60 38.53 37.68
54.06 53.94 54.11 54.58 55.06 55.69 55.77 55.50 54.79 53.43 51.39 47.29 47.87 47.52 42.63 40.22 37.50 35.82 35.58 38.18 39.93 40.46 42.20 43.27 41.63 38.33 37.41 38.68 40.02 38.79 38.10 37.44 37.01 33.21 33.32 33.07 31.70 29.74 23.97 34.50 34.14 29.22 34.46 36.92 38.11 39.42 40.46
54.09 54.14 54.10 54.35 54.72 55.55 55.95 55.81 55.63 54.44 52.14 48.17 48.64 47.31 40.84 36.59 39.20 39.22 42.30 43.05 42.33 41.76 39.07 42.13 41.38 37.47 41.40 44.42 42.39 38.26 36.90 36.76 37.53 37.57 34.83 31.77 29.77 29.68 25.13 29.18 22.54 33.11 38.86 40.84 40.11 42.92 44.06
53.62 53.65 53.87 54.20 54.57 55.26 55.99 56.12 56.00 55.09 53.79 49.09 51.18 49.36 44.36 36.67 41.65 43.09 43.20 42.07 41.78 40.39 40.00 42.14 42.82 42.66 43.17 40.23 34.35 31.75 33.01 33.89 36.46 37.28 36.54 33.91 31.09 27.07 24.78 24.90 30.51 35.19 37.96 37.51 38.44 38.82 43.51
53.46 53.56 53.72 54.07 54.37 55.12 55.84 56.35 56.21 55.50 53.99 49.95 50.47 51.40 48.33 40.54 39.36 46.17 42.30 41.98 37.31 36.00 38.82 40.64 44.54 43.65 42.11 35.58 32.96 25.68 27.13 29.43 30.32 33.92 35.50 35.67 34.49 31.45 27.50 22.30 22.61 32.27 41.60 44.86 42.55 33.68 43.71
53.17 53.48 53.48 53.83 54.10 54.51 55.18 55.64 56.34 56.15 54.56 49.55 49.53 51.23 48.46 42.44 43.36 42.96 40.09 39.81 41.88 39.22 36.86 38.68 40.10 38.78 40.09 33.32 28.47 30.31 24.26 34.25 23.79 27.17 28.79 29.08 31.25 26.33 27.11 26.80 31.52 39.01 41.21 43.80 30.57 32.09 42.15
53.13 53.48 53.27 53.40 53.70 54.35 54.83 55.54 56.07 56.05 55.65 50.29 49.75 52.33 47.80 43.99 45.68 48.05 48.24 42.13 42.04 40.47 35.91 39.43 37.45 36.80 34.69 29.81 27.99 24.52 27.27 33.57 30.27 31.34 27.81 29.79 30.01 28.94 27.43 22.99 24.71 40.24 41.51 35.32 39.09 40.42 40.94
53.23 53.36 53.11 53.40 53.46 54.16 54.82 55.63 55.64 55.51 55.30 53.62 48.51 52.35 52.98 47.37 46.60 50.74 51.70 50.30 49.02 46.95 42.48 40.14 37.56 36.75 36.79 31.96 31.37 27.05 25.45 28.98 25.45 27.57 33.14 30.51 31.72 26.30 32.59 35.45 39.46 41.56 40.62 42.02 41.16 38.14 39.35

GFSGBSN_sfc_wetblb_075.txt.gz
Wetbulb
58.41 58.03 57.92 57.39 57.11 56.66 56.45 55.98 55.82 55.43 55.74 56.28 56.61 56.68 56.72 56.74 56.85 56.94 56.95 56.73 56.64 56.49 56.76 57.89 58.58 58.13 52.56 47.61 49.35 61.47 67.61 69.94 66.04 54.82 51.62 51.91 53.67 53.82 51.46 54.23 56.99 57.15 58.78 60.40 62.00 63.26 66.03
58.86 58.59 58.01 57.25 56.87 56.46 56.11 55.77 55.50 55.27 55.63 56.16 56.27 56.37 56.33 56.35 56.40 56.43 56.39 56.09 55.98 55.92 56.49 57.98 59.54 58.75 47.46 40.74 57.32 65.79 63.77 63.54 59.85 53.72 51.13 52.50 54.42 57.11 55.43 55.35 54.59 59.41 58.63 58.68 58.52 64.36 64.48
59.38 59.03 58.29 57.34 56.73 56.24 55.89 55.49 55.30 55.24 55.71 55.96 56.06 55.95 55.82 55.78 55.87 56.00 55.78 55.55 55.50 55.74 56.38 57.90 60.18 57.69 51.51 47.13 60.82 63.86 62.06 57.26 55.54 53.91 50.40 51.23 53.64 54.58 57.40 55.81 58.53 57.95 54.56 53.79 63.19 64.54 63.33
59.82 59.18 58.17 57.29 56.78 56.26 55.65 55.35 55.23 55.40 55.71 55.51 55.49 55.60 55.48 55.50 55.52 55.35 55.23 54.72 54.92 55.93 56.77 58.31 60.87 54.82 48.09 60.32 60.56 60.71 58.51 56.86 56.76 52.77 52.27 53.38 54.23 53.96 54.87 57.41 54.10 49.08 47.58 44.32 60.65 62.85 62.52
59.77 58.93 57.63 57.04 56.51 56.15 55.61 55.31 55.17 55.30 55.26 55.31 55.35 55.08 54.97 55.14 55.03 55.02 54.57 54.31 55.55 56.81 57.74 60.18 53.51 49.82 50.47 62.17 55.65 55.57 59.67 57.73 55.35 54.69 54.28 56.86 53.88 49.08 49.46 47.21 43.94 45.29 41.77 44.48 47.66 62.08 61.99
59.24 58.63 57.19 56.39 55.84 55.86 55.97 55.52 55.20 55.20 54.57 55.33 55.41 55.41 55.23 55.14 54.79 54.27 53.88 53.69 56.77 57.87 58.62 58.95 57.86 48.11 51.88 52.37 50.64 52.06 57.38 57.99 57.00 54.64 53.02 50.78 47.58 44.23 44.90 44.06 39.05 41.16 41.69 41.96 43.92 58.43 60.58
58.35 57.90 56.51 55.98 55.74 55.71 55.89 55.36 54.55 55.17 55.33 55.27 55.33 55.04 54.88 54.77 54.22 53.50 50.77 46.49 43.86 43.65 50.73 45.39 47.87 49.79 53.01 53.92 52.05 49.67 50.99 56.15 55.31 52.23 45.65 47.52 43.69 40.92 44.83 47.40 48.61 46.71 43.98 43.38 46.73 51.00 47.38
56.66 56.24 56.07 55.74 55.67 55.34 55.18 54.28 54.05 54.88 54.94 55.33 55.08 54.96 54.67 54.41 53.54 52.83 49.54 44.10 44.88 46.92 41.07 49.54 52.44 52.57 54.65 52.70 47.45 49.64 52.32 50.67 51.15 46.13 46.95 45.46 41.56 47.18 50.09 50.32 48.63 46.86 44.46 42.75 46.94 53.24 52.33
56.23 55.92 55.63 55.60 55.62 54.77 54.02 53.83 54.09 54.84 54.88 54.98 55.06 54.69 54.14 53.54 52.70 49.40 45.73 46.41 50.46 46.48 39.35 44.81 47.45 47.87 48.06 49.21 45.28 46.79 50.05 49.42 49.47 46.85 45.78 43.19 48.07 52.33 50.09 47.71 46.89 43.78 42.63 43.14 44.60 50.20 57.55
55.92 55.92 55.92 54.92 53.95 54.04 53.89 54.26 54.52 54.86 54.94 54.79 54.73 54.69 53.70 52.05 46.90 45.78 47.60 48.85 50.82 46.74 34.48 40.74 42.32 46.34 45.92 45.43 42.27 50.71 53.11 50.80 48.79 47.55 48.17 45.98 50.76 50.44 47.69 47.20 46.85 39.56 47.21 47.81 45.83 41.43 37.61
55.97 55.90 55.64 54.38 54.15 53.92 54.04 54.63 54.94 54.87 54.73 54.67 54.63 54.12 52.75 51.26 43.83 46.89 50.50 49.91 48.32 45.22 28.76 44.45 41.31 46.73 43.54 41.46 43.99 46.44 50.02 48.41 45.13 45.22 45.40 45.20 45.28 46.20 44.89 46.12 48.44 45.69 49.03 46.33 44.99 40.21 37.57
55.95 55.87 55.73 54.68 54.53 55.17 54.94 54.79 54.96 54.73 54.55 54.37 54.00 53.17 51.92 48.33 44.75 48.18 50.00 47.81 45.68 35.22 31.07 40.40 43.38 42.10 40.92 40.81 42.85 45.94 46.83 47.69 46.30 43.19 41.76 42.53 45.81 47.24 47.36 49.75 48.98 49.94 45.71 42.07 38.93 37.07 33.05
55.63 55.20 55.22 55.27 55.19 55.06 54.86 54.92 54.94 54.57 54.08 53.59 52.66 51.54 50.14 49.94 45.91 47.42 47.85 45.23 35.00 29.92 42.58 40.85 38.19 40.08 39.43 38.58 40.66 42.39 42.72 39.54 37.25 33.13 33.52 40.24 41.58 43.44 44.80 40.71 44.74 42.76 38.08 32.25 31.41 31.39 32.09
55.37 55.27 54.87 54.96 54.90 54.92 54.94 55.08 54.94 54.43 53.88 52.82 51.17 49.67 49.68 50.35 45.73 47.45 45.90 40.19 30.77 39.39 37.67 42.30 42.03 39.80 38.95 39.69 39.17 41.46 39.10 36.42 41.79 37.07 33.57 33.51 33.97 41.22 45.00 40.21 38.21 40.31 38.41 33.13 28.65 28.78 32.95
55.48 55.29 54.30 54.64 54.60 54.92 55.00 55.10 54.59 54.25 53.54 52.21 50.15 46.87 46.88 48.54 50.36 46.59 42.70 32.78 32.35 36.58 41.62 40.58 39.89 37.46 37.78 41.24 39.62 39.76 37.61 37.04 40.38 38.47 33.78 31.97 34.30 43.34 44.99 44.12 41.72 39.20 36.23 38.45 33.04 31.28 33.21
55.38 55.07 54.28 54.10 54.55 54.80 55.18 55.04 54.63 54.14 53.32 51.81 46.34 46.38 47.76 51.89 49.59 46.07 40.29 35.54 37.79 42.85 43.16 41.26 34.99 37.68 34.17 37.15 38.64 36.75 36.55 40.77 40.89 42.36 37.75 34.69 31.56 37.57 43.16 43.65 43.12 38.89 39.98 34.82 33.28 28.79 28.12
54.68 54.86 54.10 54.25 54.24 54.96 55.49 55.24 54.47 53.90 52.66 50.98 46.85 44.36 48.88 48.00 48.51 41.76 33.88 34.95 41.32 43.99 44.70 40.57 36.93 35.77 35.43 35.16 36.25 34.60 36.45 41.62 43.69 42.47 40.77 33.67 33.19 34.83 38.32 36.79 35.90 36.04 34.13 32.20 32.59 32.05 29.41
54.84 54.72 54.06 54.16 54.40 55.30 55.55 55.10 54.17 52.96 51.36 47.72 44.93 39.84 50.91 47.71 40.39 34.61 33.14 38.09 43.48 41.79 43.80 41.85 41.08 38.54 36.71 36.39 35.16 35.71 36.05 38.99 44.80 41.92 37.47 36.73 30.43 28.78 32.12 38.63 41.65 39.44 33.85 30.95 28.04 27.78 29.59
54.92 54.18 53.98 54.59 55.14 55.45 55.59 54.94 53.82 52.39 51.51 45.78 43.52 42.34 48.84 47.01 35.02 33.29 37.44 40.97 42.81 40.76 40.20 40.43 39.25 39.99 38.63 35.48 33.22 37.12 38.98 44.10 45.84 42.26 36.23 37.73 30.93 28.11 29.46 33.56 36.67 34.69 35.70 32.69 30.68 28.09 27.15
54.45 54.56 54.20 54.85 55.47 55.69 55.59 54.77 53.62 52.62 51.83 46.77 41.40 37.41 41.19 41.31 36.80 36.21 35.04 37.05 37.99 44.73 41.74 41.58 39.59 39.13 37.10 34.90 35.59 34.93 37.20 42.23 44.02 44.83 49.43 40.93 28.96 29.37 26.52 28.07 32.38 32.38 36.28 35.59 30.99 27.41 27.98
54.21 54.48 54.45 55.35 55.49 55.89 55.77 55.04 54.14 52.73 51.66 45.93 40.78 37.49 38.32 34.90 37.21 36.86 36.66 37.31 37.78 36.80 40.80 40.38 38.86 38.69 34.35 30.99 32.02 32.91 36.10 37.31 41.38 43.54 40.49 34.34 28.16 30.41 30.33 35.80 35.75 35.16 35.11 36.48 32.28 31.65 29.65
54.13 54.45 54.15 55.01 55.45 55.79 55.99 55.53 54.55 53.12 51.51 46.39 42.46 41.44 39.54 36.04 36.47 36.76 36.13 34.51 36.91 37.95 37.16 36.40 36.25 38.82 37.07 32.45 32.43 30.63 33.14 32.00 32.20 37.55 35.13 34.84 29.50 30.48 29.86 35.71 35.20 32.80 35.54 36.73 36.63 36.49 35.36
54.04 54.11 54.15 54.19 55.03 55.67 56.19 55.67 55.00 53.24 50.54 46.35 46.27 45.64 41.12 38.15 35.41 34.36 34.10 36.42 38.61 38.99 40.75 41.69 39.92 36.73 35.55 37.13 38.92 37.90 37.41 36.28 33.75 32.25 32.72 31.17 29.81 27.86 23.59 32.47 32.40 27.23 32.58 34.91 35.30 39.07 37.99
53.88 54.12 54.14 54.50 54.80 55.43 56.09 55.99 55.51 53.96 51.16 48.20 47.54 45.38 39.84 35.86 37.53 37.75 40.57 41.54 40.59 40.06 37.96 39.77 39.59 35.52 39.96 42.33 40.81 37.68 34.62 33.36 35.24 33.21 33.40 30.02 28.59 27.38 23.84 27.48 21.34 30.28 37.04 39.29 40.98 42.17 42.70
53.63 53.98 54.06 54.35 54.64 55.07 56.00 56.34 56.30 54.86 53.49 49.83 48.76 47.55 40.72 35.85 39.74 41.33 41.55 40.73 39.85 39.55 38.78 40.52 41.42 41.07 41.07 38.53 33.00 30.59 30.98 31.81 34.59 35.28 33.70 31.69 28.89 25.47 24.03 22.84 28.21 33.71 36.94 36.95 35.68 37.56 42.33
53.30 53.57 53.88 54.10 54.29 54.80 55.48 56.23 56.25 55.27 53.75 49.40 48.58 49.08 45.83 38.98 38.29 44.58 41.05 40.03 35.94 34.89 38.07 39.29 42.74 41.68 40.12 34.44 30.89 25.06 26.93 27.92 29.25 31.90 33.87 34.13 32.33 29.44 25.05 20.51 22.35 30.79 39.75 42.66 40.94 32.91 42.25
53.03 53.30 53.73 53.85 54.16 54.66 55.12 55.66 55.91 55.99 54.37 49.14 49.38 48.75 46.80 40.31 41.65 41.34 39.02 38.96 40.16 37.38 35.52 36.70 38.23 37.72 37.77 31.04 28.14 26.61 22.70 31.57 21.68 26.68 27.01 25.50 29.54 25.50 24.67 22.63 29.28 37.84 39.85 42.16 29.73 30.17 40.61
53.07 53.20 53.63 53.36 53.61 54.16 54.86 55.42 55.75 55.67 55.47 49.82 49.34 50.31 47.28 42.47 44.35 46.90 47.03 41.44 40.82 39.12 35.08 38.21 35.85 34.86 32.67 27.95 24.94 23.02 22.02 25.98 25.07 29.54 27.38 26.34 27.57 25.82 29.45 21.93 23.01 40.05 39.84 33.60 36.68 37.42 39.14
52.85 53.28 53.30 53.36 53.59 53.86 54.72 55.37 56.08 55.47 55.29 51.57 47.33 49.31 50.04 46.16 45.59 48.41 50.65 51.10 47.47 45.72 40.66 37.32 36.09 35.04 35.03 29.18 26.18 24.62 31.02 30.57 22.70 18.76 31.58 25.15 29.89 24.55 30.51 29.10 39.59 39.27 38.16 38.99 39.45 36.54 37.36

GFSGBSN_sfc_wetblb_078.txt.gz
Wetbulb
59.87 59.36 58.73 57.89 57.36 56.76 56.40 55.82 55.57 55.50 56.02 56.33 56.44 55.93 56.02 56.31 56.58 56.75 56.77 56.72 56.58 56.31 56.52 57.04 58.83 57.88 51.89 44.98 47.03 63.25 66.44 67.34 63.90 56.10 50.96 51.42 52.37 52.32 52.05 54.21 56.08 57.04 59.46 59.78 62.03 62.65 64.35
60.49 59.82 59.11 57.81 57.29 56.73 56.07 55.53 55.45 55.79 56.04 55.89 55.36 55.14 55.42 55.89 56.00 56.05 56.31 56.28 56.02 56.02 56.30 56.99 59.50 58.64 46.16 38.20 55.43 64.36 64.30 62.88 57.19 51.87 49.96 53.27 53.48 55.93 53.92 53.97 54.33 57.85 58.38 57.83 57.82 60.48 63.49
60.49 59.64 58.51 57.11 56.92 56.23 55.61 55.28 55.35 55.61 55.36 54.93 54.76 55.30 55.52 55.52 55.67 55.85 55.77 55.42 55.56 55.79 56.20 56.96 60.06 57.16 50.11 44.65 61.21 61.76 61.82 58.31 55.37 52.26 48.75 50.10 55.49 53.69 55.45 54.58 57.50 56.05 52.98 55.44 62.87 63.14 62.39
59.96 59.09 57.70 56.66 56.21 55.78 55.52 55.48 55.60 54.90 54.76 54.43 54.94 55.27 55.31 55.52 55.52 55.34 54.99 54.88 55.09 55.98 56.39 57.31 60.17 53.35 48.18 57.92 60.34 60.43 56.93 54.83 54.66 50.80 51.45 51.42 53.97 52.53 52.59 56.11 52.14 47.94 46.89 43.68 61.06 62.11 62.87
59.01 58.37 57.26 56.26 55.96 55.96 55.83 55.06 54.90 54.47 54.31 54.71 55.07 55.24 55.28 55.32 55.13 54.33 53.59 53.90 56.27 57.10 57.46 59.36 52.03 48.40 49.37 61.53 56.56 58.18 57.25 54.14 53.31 52.60 52.07 55.79 50.97 48.39 48.10 46.16 44.16 44.74 41.80 43.55 48.36 61.91 61.14
57.52 56.52 56.09 55.86 55.61 55.13 54.92 54.60 54.20 54.10 55.11 55.35 55.51 55.45 55.28 55.30 54.85 53.46 52.91 53.46 58.87 58.27 58.13 58.73 57.25 46.36 50.61 51.23 50.55 56.60 57.46 56.23 53.69 52.53 51.25 49.07 45.67 42.99 44.07 43.42 40.25 41.26 41.59 41.22 43.46 58.91 59.63
56.41 56.04 55.98 55.83 55.06 54.83 54.44 54.43 53.87 54.34 55.23 55.35 55.49 55.30 55.14 54.63 53.81 52.64 50.50 45.94 42.45 42.54 50.24 43.55 43.40 46.45 51.05 53.63 51.71 49.67 56.42 55.93 53.94 50.40 43.88 45.49 41.69 39.16 42.94 46.23 47.51 46.04 43.85 42.93 45.92 48.78 46.73
56.13 56.05 55.69 55.01 54.43 54.27 54.13 53.98 54.30 54.96 55.11 55.49 55.36 55.18 53.90 54.16 53.80 53.02 48.88 44.00 45.44 45.01 40.39 49.11 51.41 50.90 52.66 51.93 47.38 47.81 56.53 51.19 50.71 45.57 45.60 43.21 39.57 45.86 48.48 48.43 47.66 46.04 43.90 42.75 47.70 52.17 50.78
55.69 55.81 55.75 54.79 54.62 54.31 53.96 54.85 55.26 55.32 55.36 55.36 55.24 54.55 53.55 53.66 52.84 48.82 44.25 45.30 48.51 45.46 38.46 43.65 47.17 47.29 46.66 49.67 45.84 45.70 50.58 50.86 49.02 44.98 44.13 41.51 46.29 50.01 48.70 47.07 45.91 42.95 42.02 42.62 45.60 47.64 56.85
56.07 56.02 55.78 54.84 55.02 54.44 55.17 55.32 55.34 55.26 55.08 55.08 55.04 53.96 53.53 51.86 46.99 45.31 46.42 48.13 48.41 45.70 33.90 39.42 41.06 46.02 45.30 44.16 41.28 50.55 51.48 50.52 48.63 46.00 45.65 44.56 49.30 49.99 47.33 46.39 45.99 37.10 46.80 47.45 45.65 40.55 36.76
56.21 55.82 54.94 54.70 55.15 54.85 55.30 55.14 55.12 55.14 55.00 54.83 54.04 53.51 52.93 51.09 44.27 45.79 49.29 47.14 45.90 44.19 27.38 43.21 41.21 45.54 41.87 40.78 44.39 45.46 48.91 48.12 45.27 46.18 46.75 45.17 45.76 45.99 44.37 45.37 47.59 44.89 47.61 46.20 44.75 39.44 36.75
56.11 55.86 54.90 54.45 54.45 54.96 55.08 55.10 54.98 54.98 54.79 54.51 53.61 53.34 52.03 47.52 43.66 46.85 48.02 45.33 44.72 34.31 29.60 39.94 42.27 39.95 39.79 40.49 41.58 45.17 45.92 46.50 45.91 42.06 41.52 42.82 44.37 45.59 46.91 48.29 48.87 48.64 43.22 39.88 37.61 35.95 32.52
55.93 55.58 54.59 54.37 54.31 54.90 54.98 54.93 54.96 54.79 54.43 53.45 52.56 51.62 49.25 48.69 44.72 45.89 45.95 44.35 34.31 29.26 41.22 39.41 38.52 39.05 37.27 38.10 40.06 41.71 41.08 39.27 36.50 34.50 32.91 39.26 40.39 42.38 43.74 39.67 43.61 42.36 37.31 30.66 30.33 30.69 31.73
55.50 54.77 54.74 54.30 54.03 54.69 54.91 55.12 54.96 54.67 53.94 52.74 51.23 49.64 49.67 50.02 46.45 46.40 44.64 39.30 29.95 37.76 36.26 40.68 40.36 39.54 37.90 39.15 40.26 40.32 37.98 36.03 40.00 36.11 32.99 33.02 32.98 39.83 43.50 39.08 37.78 38.46 37.45 32.26 27.60 27.86 32.15
55.41 54.48 54.67 54.60 54.21 54.57 55.16 55.18 54.81 54.47 53.61 52.14 50.10 46.47 46.67 48.57 49.73 45.34 41.57 31.77 31.10 35.37 40.01 39.17 38.40 36.76 38.01 40.30 38.56 39.23 35.94 35.77 38.26 36.70 32.23 32.43 33.25 42.05 43.44 42.27 39.99 38.59 34.70 36.82 31.92 29.54 32.17
55.39 54.52 54.34 54.46 54.15 54.86 55.18 55.14 54.73 54.39 53.50 51.88 46.79 45.66 46.29 48.14 47.57 43.84 38.17 34.23 35.92 42.08 42.74 40.09 33.73 35.59 33.09 37.44 37.85 36.10 37.15 40.54 39.45 41.10 36.74 33.34 31.23 36.63 41.66 42.27 41.77 38.37 38.45 34.54 33.30 28.91 27.80
55.15 54.30 54.38 54.54 54.78 55.16 55.54 55.28 54.75 54.02 52.74 51.06 45.47 43.03 47.95 47.28 45.57 41.44 33.40 34.08 39.64 43.21 43.62 39.46 36.36 35.52 33.84 33.04 36.70 36.29 36.08 41.57 44.01 41.81 39.71 33.14 32.20 33.56 37.30 34.48 32.74 34.78 32.69 32.03 32.15 30.68 29.41
55.00 54.76 54.21 54.34 55.22 55.52 55.71 55.26 54.33 53.01 51.45 47.95 43.11 39.39 48.76 46.44 39.03 32.92 32.83 36.13 41.96 40.47 42.43 41.14 40.39 37.24 35.01 34.78 33.48 34.74 36.01 38.09 44.77 42.56 38.28 37.66 31.92 27.75 29.88 37.40 38.90 35.57 32.08 29.90 30.17 29.24 28.15
54.88 55.10 54.30 54.92 55.28 55.81 55.83 55.08 53.88 52.50 51.31 45.60 41.92 39.86 46.19 44.50 34.03 32.12 35.79 39.53 40.96 39.40 38.90 39.15 38.32 38.99 37.79 33.21 32.25 35.89 37.95 42.97 43.31 43.67 38.48 38.40 31.01 25.64 28.15 32.36 35.51 34.22 34.91 29.71 28.94 28.06 27.17
54.76 54.88 54.38 54.40 55.43 55.91 55.81 55.02 53.76 52.48 51.75 45.58 40.09 36.67 40.49 39.83 34.92 35.19 33.33 34.98 37.26 42.99 39.80 40.18 38.68 38.35 36.26 34.04 34.81 33.86 36.13 41.32 42.20 43.96 47.69 40.74 31.53 28.94 25.63 27.90 31.73 32.33 35.08 34.84 29.52 27.83 27.52
53.85 54.47 54.13 54.48 55.47 55.89 55.97 55.10 54.02 52.62 51.56 44.96 40.05 36.08 36.57 33.56 35.94 34.87 34.76 35.84 36.57 35.61 39.70 39.16 37.54 37.36 33.82 30.60 32.03 32.50 35.39 37.04 40.52 42.65 39.13 33.54 29.26 30.59 31.27 34.89 34.69 34.07 33.93 35.50 31.60 30.90 29.44
53.97 54.27 54.40 54.46 55.35 55.89 56.11 55.46 54.43 52.76 51.28 46.12 42.16 38.96 37.08 34.47 34.99 35.15 35.33 33.51 35.89 36.02 36.19 35.69 35.30 37.56 36.01 32.15 31.88 30.78 32.95 32.85 31.79 37.12 33.64 33.26 29.86 29.53 28.81 34.37 33.88 32.50 34.82 35.86 35.54 35.65 34.91
53.78 54.10 54.31 54.46 55.11 55.67 56.09 55.85 54.69 53.00 50.62 46.16 45.23 43.52 40.47 37.22 34.44 33.03 33.24 35.08 37.35 37.58 39.63 40.52 38.36 35.74 35.19 36.04 37.85 36.66 36.26 34.44 32.24 31.89 31.74 30.53 29.11 26.81 22.65 30.54 30.36 26.82 31.56 33.66 35.51 38.10 35.86
53.88 53.76 54.08 54.27 54.88 55.47 56.05 56.08 55.45 53.94 50.69 48.02 46.11 42.04 39.48 35.14 36.64 36.68 38.97 40.07 39.39 38.49 36.67 38.65 38.57 34.75 38.40 40.80 39.58 36.87 35.79 34.75 35.40 33.45 31.60 29.24 27.83 26.33 23.78 24.74 21.09 28.90 35.97 38.10 39.25 41.86 42.42
53.45 53.36 54.14 54.18 54.68 55.17 55.90 56.34 55.92 54.83 53.00 49.15 46.94 45.54 39.47 35.12 38.13 39.99 40.17 39.30 38.67 38.79 38.07 39.37 40.37 39.39 39.10 37.55 32.00 29.93 29.59 30.15 32.84 33.65 31.72 30.23 28.61 24.72 23.72 22.53 27.41 33.41 37.53 37.63 35.61 36.55 41.96
53.00 53.16 53.88 54.14 54.29 54.90 55.37 56.17 56.06 55.28 53.31 48.89 46.98 46.81 42.08 38.43 37.19 42.97 39.72 38.79 35.24 34.14 36.70 38.76 41.14 39.62 38.67 33.19 30.19 24.58 22.42 27.26 28.20 30.12 32.07 32.80 31.02 27.94 24.86 21.22 22.07 30.11 39.10 41.39 40.12 31.64 41.01
52.77 52.89 53.65 53.69 54.04 54.49 55.07 55.56 55.56 55.72 54.26 49.39 48.84 46.80 44.66 39.19 40.75 40.31 38.32 38.32 38.69 35.97 34.73 35.30 36.53 36.22 36.00 29.84 23.69 21.29 20.45 30.78 21.73 26.59 26.12 25.21 27.43 24.83 25.07 22.30 28.22 37.22 39.21 41.38 29.45 30.28 40.44
52.43 52.84 53.14 53.45 53.73 54.26 54.84 55.51 55.62 55.36 55.26 49.97 48.65 48.25 46.46 41.84 42.83 45.90 44.75 40.40 39.78 37.66 34.54 36.86 35.50 33.62 31.32 26.83 24.90 23.32 21.76 26.15 24.30 28.51 27.05 25.42 22.96 27.62 28.52 23.73 22.85 39.74 38.94 34.61 36.19 38.05 38.83
52.06 52.51 52.87 53.35 53.49 53.94 54.47 55.22 55.22 55.22 55.18 49.77 46.42 46.93 48.70 45.90 44.15 46.91 49.06 48.50 46.59 44.92 39.04 35.90 35.52 33.55 33.21 27.74 27.00 24.51 23.87 26.50 21.75 20.11 30.12 24.40 28.25 25.46 28.19 28.34 36.74 39.01 37.07 39.66 39.11 36.96 37.78

GFSGBSN_sfc_wetblb_084.txt.gz
Wetbulb
59.83 59.03 58.00 57.11 56.61 56.39 56.23 56.23 55.94 55.75 55.75 55.68 55.33 55.57 55.62 55.96 55.90 56.35 56.77 56.52 56.50 56.40 56.65 56.75 57.39 58.50 58.42 54.77 52.75 66.21 66.10 67.02 65.65 65.86 62.23 60.42 58.68 58.77 58.61 62.63 62.84 64.51 64.56 64.37 64.33 66.57 66.37
58.53 57.79 57.23 56.86 56.66 56.36 55.84 55.66 55.69 55.57 55.29 55.09 55.18 55.35 55.46 55.73 55.76 56.03 55.99 55.85 55.43 55.83 56.29 56.92 57.45 58.96 56.69 49.62 63.60 65.17 63.14 65.17 63.92 62.73 60.25 59.91 57.71 59.73 58.95 61.49 62.41 64.03 64.03 62.51 63.20 62.38 66.44
57.10 56.90 56.88 56.75 56.12 55.81 55.54 55.46 55.26 54.91 54.89 55.02 55.21 55.28 55.36 55.56 55.87 55.88 55.58 55.00 54.71 55.18 55.98 56.92 58.15 59.42 56.12 53.93 65.30 63.19 65.93 63.41 61.97 60.68 58.23 60.06 60.37 59.52 60.81 59.20 63.17 62.81 60.14 63.25 63.48 64.38 64.79
56.83 56.73 56.39 56.04 55.72 55.53 55.21 55.11 55.10 54.97 54.93 55.17 55.34 55.71 55.55 55.61 55.58 55.27 54.46 54.16 55.55 56.41 56.39 57.14 59.40 60.23 54.69 63.53 65.39 63.40 64.17 61.70 60.46 61.21 60.10 60.58 62.26 61.07 61.02 63.20 61.67 59.90 59.97 57.34 64.07 66.15 65.67
56.78 56.28 55.93 55.97 55.73 55.44 55.31 55.09 54.98 55.23 55.94 56.04 55.92 55.59 55.70 55.25 55.19 54.29 53.73 54.15 58.52 58.36 57.66 59.21 59.97 58.84 54.62 63.20 59.97 61.12 62.22 58.92 58.70 58.92 59.51 59.20 61.12 59.25 59.72 57.60 56.97 58.76 55.52 55.31 61.41 66.21 65.07
56.81 56.02 56.06 56.05 55.77 55.72 55.66 55.57 55.04 55.71 56.16 56.19 56.23 56.01 55.61 54.92 54.23 53.56 53.76 53.78 57.87 59.71 60.38 61.17 60.41 55.69 57.91 56.89 60.60 60.38 60.90 59.11 56.54 56.31 55.19 55.12 56.47 54.79 56.18 55.58 51.47 55.23 56.51 56.25 58.97 63.47 64.51
56.63 55.94 55.97 55.87 55.66 55.69 55.78 55.51 55.90 56.12 56.15 56.03 56.15 55.78 54.64 53.98 53.78 53.19 54.45 58.49 55.87 55.83 56.26 51.89 51.85 52.56 56.73 59.66 61.71 59.12 61.24 57.44 56.65 54.83 50.89 52.92 51.38 49.44 53.21 55.84 58.09 58.08 57.00 55.88 60.64 63.65 60.26
56.43 55.97 55.50 55.48 55.52 55.57 55.54 55.75 55.93 56.03 55.87 56.07 56.02 55.44 54.53 53.68 53.11 52.41 57.36 54.80 53.85 54.40 50.44 54.66 53.89 53.81 56.00 57.96 54.13 57.40 61.17 55.75 53.27 50.17 53.04 49.69 48.91 52.65 56.22 57.48 56.65 56.89 55.43 53.75 56.67 57.94 56.84
56.34 55.96 55.77 55.36 55.74 55.67 55.50 55.59 55.70 55.66 55.76 55.90 55.52 54.65 53.85 53.02 52.80 54.99 56.64 54.81 57.30 56.44 50.89 50.51 52.97 53.04 54.25 56.01 54.04 55.46 59.22 57.37 53.08 50.89 50.69 48.71 50.83 54.50 55.15 56.45 54.73 56.38 55.64 54.00 54.32 55.68 59.19
56.49 55.94 55.18 55.68 55.43 55.47 55.39 55.62 55.60 55.57 55.57 55.45 54.97 54.01 53.06 52.14 51.55 58.61 55.72 57.42 57.50 56.99 46.87 46.64 48.81 52.82 53.65 54.78 52.39 58.81 59.72 58.02 54.85 50.93 50.98 50.23 54.21 53.04 53.82 54.36 55.68 53.08 57.43 55.13 53.36 52.66 52.97
56.63 55.76 55.33 55.64 55.53 55.40 55.28 55.44 55.58 55.52 55.45 55.13 54.85 53.43 52.12 50.25 57.31 55.85 56.47 57.89 57.38 54.73 38.46 47.07 49.70 54.70 54.33 51.00 51.82 53.86 59.47 57.72 53.91 53.05 52.10 49.91 51.76 53.12 53.05 54.08 56.26 53.57 57.22 56.10 54.43 53.12 51.48
56.53 55.98 55.80 55.68 55.46 55.43 55.25 55.45 55.59 55.01 55.13 54.80 53.85 52.79 52.05 54.98 57.28 57.08 58.00 58.35 54.76 45.28 36.07 44.79 47.74 48.07 48.21 50.21 51.53 53.47 54.23 55.62 57.15 54.40 54.02 53.08 55.39 56.76 56.04 56.99 56.75 56.34 54.64 54.53 54.61 53.33 47.93
56.59 55.76 55.67 55.51 55.38 55.36 55.41 55.35 55.57 54.99 54.74 54.03 52.72 51.70 53.32 56.32 56.57 58.52 59.01 55.73 45.77 40.99 47.13 43.72 44.77 47.42 47.58 47.63 49.17 51.01 50.35 50.53 50.42 48.46 48.66 50.25 51.93 52.50 53.63 55.52 56.91 54.77 51.98 46.78 46.58 46.32 46.48
56.59 55.83 55.30 55.34 54.93 55.39 55.47 55.68 55.57 55.03 54.34 53.18 51.25 50.21 55.52 57.71 58.94 58.61 57.36 50.92 40.76 42.66 44.27 47.52 45.88 46.19 45.35 48.12 48.60 49.43 49.04 48.41 49.58 49.50 49.74 45.58 42.93 49.07 50.07 52.24 52.83 52.69 51.99 47.40 42.84 44.24 46.87
56.42 55.69 55.56 55.24 54.89 55.25 55.49 55.47 55.15 54.86 53.89 52.45 50.27 59.70 59.75 58.10 58.59 58.15 53.65 46.04 42.88 43.08 45.37 45.32 45.93 43.70 44.83 46.66 47.99 48.68 48.21 46.72 47.61 49.23 47.74 47.49 43.70 48.29 48.55 50.26 50.80 52.01 50.12 52.88 48.55 50.87 47.87
56.40 55.49 55.54 55.34 55.03 55.21 55.68 55.57 55.17 54.66 53.45 51.99 60.71 59.06 56.75 58.41 58.42 56.31 51.91 42.39 45.47 46.92 46.79 46.96 42.98 45.52 42.87 45.04 45.54 46.03 45.92 47.74 47.07 48.88 50.25 48.60 43.76 47.04 47.33 49.50 50.45 51.92 54.35 47.90 48.53 44.16 43.50
56.40 55.38 55.74 55.40 55.19 55.39 55.96 55.64 55.09 54.18 52.75 51.51 58.43 54.70 57.19 58.50 57.45 55.12 47.40 45.46 46.42 47.96 47.76 45.93 44.67 44.44 45.47 43.60 45.88 44.39 43.93 46.95 48.15 48.23 50.37 49.35 48.25 45.55 47.90 46.96 47.29 48.86 49.22 50.21 50.72 48.84 45.45
56.41 55.20 55.48 55.28 55.09 55.66 56.00 55.58 54.56 52.88 51.44 52.01 56.42 51.69 57.70 58.20 53.14 52.57 47.25 46.95 44.44 47.33 49.23 47.45 47.35 46.67 45.85 46.16 45.15 44.15 42.91 45.34 48.90 49.51 46.53 48.49 48.47 44.75 45.24 46.86 47.94 48.06 48.98 50.29 47.22 46.67 48.91
56.37 54.98 55.42 55.38 55.19 55.82 55.98 55.39 54.05 52.52 51.61 57.66 54.70 53.18 58.00 57.48 47.97 46.81 47.95 46.44 47.58 47.10 47.07 46.34 45.42 47.07 47.77 45.94 43.94 45.79 45.48 46.99 48.89 48.58 47.95 48.78 47.28 42.31 42.63 45.54 47.30 47.04 47.64 48.63 49.56 50.75 48.40
56.49 54.99 55.24 55.48 55.50 56.02 56.02 55.19 53.85 52.70 51.93 56.80 54.37 49.06 52.13 53.59 52.89 48.62 46.47 45.23 44.23 47.61 47.16 47.80 46.44 47.74 46.84 46.14 48.45 45.38 45.14 46.40 48.47 48.24 47.92 49.32 47.40 45.18 43.67 44.47 47.30 44.32 44.60 46.53 48.10 47.36 48.52
56.33 54.22 54.64 55.22 55.56 56.04 56.04 55.37 54.21 52.91 52.13 56.88 53.36 47.99 48.97 46.75 47.31 47.68 47.60 45.58 43.73 43.08 46.72 48.38 45.69 45.57 45.38 44.28 45.36 44.52 46.07 46.86 48.25 47.82 48.36 48.65 43.64 45.91 45.12 44.79 44.72 43.86 43.00 43.92 46.13 47.19 46.91
56.35 54.43 54.25 54.96 55.02 55.96 56.14 55.58 54.72 53.28 51.75 57.56 52.93 51.27 51.11 48.62 47.67 47.33 44.91 44.95 43.71 44.20 45.31 43.69 43.91 45.00 46.42 44.51 45.10 43.72 46.14 47.69 45.80 48.45 48.01 48.03 43.78 45.55 42.64 42.92 43.25 42.10 43.06 42.85 43.77 44.91 47.00
56.32 54.33 54.09 54.88 55.08 55.74 56.14 55.90 55.01 53.22 53.68 56.78 57.65 55.33 53.45 44.84 47.66 47.30 45.27 44.61 43.62 45.52 45.89 46.29 45.46 45.13 44.49 45.02 47.68 48.23 49.07 48.01 48.20 47.44 44.82 46.02 45.30 43.00 40.27 41.98 41.27 39.37 43.55 43.42 44.09 45.27 46.68
56.50 54.33 53.70 54.43 54.87 55.38 56.02 56.31 55.66 54.13 53.29 60.39 57.91 56.20 53.65 46.65 49.17 46.81 46.18 46.57 45.50 46.21 44.60 46.41 47.20 45.96 47.16 50.14 49.80 49.15 48.55 47.87 47.74 47.50 48.22 44.39 44.76 44.30 42.96 41.23 34.35 42.68 46.34 45.57 44.54 46.91 47.93
56.58 54.15 53.23 54.12 54.69 55.10 55.77 56.55 56.23 54.85 53.19 59.77 60.54 56.91 54.10 48.84 49.17 47.69 47.07 46.89 47.75 47.95 47.17 46.97 47.35 49.24 50.69 48.78 45.00 42.17 42.81 43.00 43.47 45.41 46.52 47.72 45.32 41.46 38.71 38.54 40.63 41.43 43.91 44.31 44.30 44.95 48.63
56.50 54.28 52.83 53.65 54.46 54.87 55.53 56.42 56.16 55.42 53.80 60.19 58.73 59.23 55.73 52.71 49.52 49.87 48.25 48.08 48.27 47.79 46.90 47.36 49.91 51.64 50.00 47.98 46.14 39.06 39.02 41.00 39.12 40.81 46.09 44.82 46.56 42.75 40.26 36.12 34.29 43.42 46.31 48.26 47.64 41.77 48.99
56.48 54.30 52.62 53.15 54.07 54.50 55.36 56.00 55.63 55.84 54.46 58.20 58.75 59.19 56.98 52.31 52.36 51.81 50.73 49.95 50.41 48.89 48.95 47.99 48.22 47.21 49.57 46.59 43.99 42.06 40.88 41.93 38.26 38.44 39.18 41.20 42.07 39.44 40.12 38.19 41.53 46.30 47.00 49.13 38.82 42.82 48.55
56.14 54.34 52.84 52.73 53.76 54.17 54.81 55.42 55.66 55.50 55.38 55.90 57.84 59.55 56.93 53.41 54.31 53.21 52.91 50.91 50.62 50.58 49.23 48.94 47.36 46.75 46.31 43.34 43.66 42.09 42.77 39.35 40.85 43.55 41.78 41.20 40.10 39.81 41.28 38.11 35.89 48.58 46.91 42.68 47.61 49.66 49.05
56.04 54.40 52.49 52.69 53.25 53.82 54.24 54.98 55.40 55.17 55.32 53.86 57.27 58.66 59.12 54.51 54.90 57.10 56.60 56.22 55.06 54.19 54.02 50.58 48.50 46.38 49.30 46.55 46.18 45.40 42.13 42.38 41.74 39.09 44.62 39.75 44.46 43.84 43.14 44.59 48.77 49.95 49.31 50.79 49.14 46.95 48.34

GFSGBSN_sfc_wetblb_087.txt.gz
Wetbulb
58.08 57.68 57.45 57.40 56.81 56.52 56.43 56.49 56.31 56.11 55.91 55.81 55.80 55.81 55.87 56.20 56.25 56.33 56.47 56.56 56.49 56.20 56.77 57.25 57.67 58.14 59.43 56.55 56.92 68.26 66.30 66.85 63.91 67.50 63.38 61.01 59.74 62.75 61.12 63.12 66.50 64.11 65.47 65.42 66.27 67.77 66.89
57.70 57.57 57.25 56.87 56.63 56.34 56.07 55.82 55.88 55.69 55.58 55.53 55.59 56.06 55.92 56.17 56.11 56.37 56.39 56.32 55.95 55.71 56.10 57.03 57.75 58.73 57.99 52.78 63.52 65.95 63.08 60.92 61.47 65.27 62.65 61.73 60.37 63.05 60.45 61.91 64.83 66.62 66.26 64.72 64.46 65.74 67.99
57.22 56.85 56.72 56.67 56.49 56.18 55.96 55.78 55.83 55.71 55.60 55.66 55.78 56.06 56.00 56.08 56.28 56.35 55.88 55.39 55.44 55.64 55.81 56.99 58.25 60.27 58.69 55.85 64.83 63.99 62.35 59.69 63.61 64.65 61.33 62.27 61.10 59.04 61.35 60.57 67.15 65.30 62.71 63.43 63.94 65.47 66.79
57.34 56.68 56.77 56.63 56.66 56.31 56.10 55.83 55.89 56.12 55.91 55.67 55.83 56.01 55.97 55.95 55.89 55.72 55.04 54.62 55.87 57.42 57.11 57.27 58.89 60.74 58.31 63.66 65.20 63.47 64.46 62.06 64.14 64.18 61.83 61.78 61.30 59.90 60.51 63.37 63.40 62.93 62.95 58.38 63.72 66.83 67.02
57.38 56.63 56.69 56.73 56.49 56.42 56.26 56.05 55.56 55.73 56.24 56.52 56.46 56.51 56.07 56.32 55.77 54.85 54.35 54.43 57.33 59.43 58.40 58.12 60.14 60.55 56.32 64.35 61.04 63.95 63.77 60.02 60.97 61.50 61.49 61.04 60.51 58.71 60.56 58.55 58.07 61.20 57.68 58.01 61.64 66.15 66.15
57.25 57.04 56.58 56.37 56.36 56.32 56.28 56.09 56.29 56.46 56.58 56.43 56.34 56.54 56.46 55.97 55.07 54.31 54.05 54.20 56.75 58.96 60.19 61.70 61.60 56.89 60.21 57.19 60.77 62.15 63.05 60.88 58.45 58.52 57.38 56.57 57.38 56.52 57.12 57.89 52.47 55.78 56.61 59.87 59.16 64.20 64.67
57.10 56.61 56.17 56.07 55.86 56.11 56.22 56.20 56.27 56.20 56.43 56.58 56.54 56.19 55.83 55.01 54.00 53.50 54.46 59.74 58.72 57.78 57.35 55.36 53.98 55.46 57.20 60.76 61.99 60.11 60.48 58.88 58.35 56.53 52.32 54.27 52.27 51.12 54.07 56.26 58.68 58.66 57.75 56.97 59.45 64.41 62.05
56.92 56.72 55.94 55.91 56.17 56.32 56.31 56.13 56.30 56.24 56.24 56.54 56.38 55.06 55.18 54.47 53.87 53.63 56.37 57.45 55.75 56.79 52.98 56.06 54.32 56.29 59.22 61.42 55.43 58.89 61.72 55.22 54.29 51.65 54.30 51.72 49.56 54.15 55.23 55.83 57.05 58.47 57.29 56.59 60.03 63.51 61.54
57.19 56.39 56.30 56.48 56.24 56.19 56.14 56.04 55.97 56.09 56.25 56.17 55.73 55.21 54.51 53.93 53.48 55.38 59.18 56.69 59.37 58.53 52.68 53.52 53.65 54.74 56.43 59.63 55.35 56.40 58.60 56.63 53.19 51.65 52.70 50.59 52.15 54.71 53.75 54.59 55.87 57.99 57.45 57.38 57.08 58.92 59.51
57.40 56.71 56.25 56.03 56.11 56.08 56.16 55.93 56.11 55.91 55.98 55.68 55.23 54.88 53.64 52.89 50.70 59.73 56.91 58.73 59.46 58.73 49.20 49.03 49.98 53.94 56.60 56.39 53.09 58.83 60.19 58.15 53.72 51.19 52.74 52.45 54.46 53.50 52.80 54.99 56.92 54.71 58.92 57.59 57.23 56.70 53.98
57.42 56.63 56.27 56.10 55.90 56.01 55.87 56.03 55.90 55.63 55.70 55.42 54.81 54.36 53.20 51.16 58.83 56.30 58.50 59.41 59.33 57.77 40.22 49.21 50.24 58.03 55.98 53.50 55.37 55.62 60.51 58.42 53.71 52.50 53.19 50.96 52.35 52.10 52.34 54.86 56.86 54.68 59.46 57.53 56.35 55.64 55.77
57.44 56.72 56.27 56.14 56.04 55.97 55.76 55.80 55.78 55.30 55.44 54.95 54.44 53.59 52.83 56.84 59.08 59.01 59.60 60.30 57.66 46.11 39.15 46.51 51.15 50.41 51.03 52.48 53.87 56.31 56.69 59.56 59.06 55.01 53.81 53.21 55.16 55.24 54.92 56.82 56.97 58.20 57.65 57.81 56.89 55.23 50.32
57.49 56.48 56.29 56.10 56.03 55.71 55.38 55.56 55.76 55.38 55.03 54.30 53.29 52.30 53.42 59.83 58.12 61.59 60.89 57.59 47.10 42.51 50.02 45.98 46.83 49.33 50.02 49.33 51.03 53.02 52.85 52.04 52.23 49.94 49.55 52.73 52.54 56.35 57.90 55.15 57.19 56.93 54.74 49.63 48.17 48.54 48.08
57.59 56.29 56.04 55.79 55.74 55.44 55.56 55.70 55.68 55.42 54.99 53.76 51.66 50.73 57.75 60.44 61.50 60.91 59.47 52.59 41.40 46.61 46.56 49.52 47.31 47.97 46.69 49.72 50.71 51.79 51.03 49.63 54.02 54.05 50.34 48.10 46.76 53.92 57.46 56.60 54.43 54.76 54.22 49.61 44.28 45.99 48.30
57.65 56.35 55.90 55.97 55.54 55.54 55.62 55.74 55.38 55.21 54.45 53.00 50.51 59.91 61.13 62.23 61.09 60.59 55.12 45.34 43.57 46.89 46.80 47.28 46.36 44.84 45.70 48.68 49.91 50.59 50.18 49.77 51.66 52.71 48.01 48.40 47.89 52.75 53.63 56.69 55.05 54.45 51.49 54.68 50.63 52.25 49.17
57.70 56.51 55.80 56.09 55.70 55.58 55.70 55.80 55.36 54.87 54.12 52.45 60.51 60.20 60.84 60.67 60.93 58.45 52.23 44.11 47.98 49.22 48.09 49.74 43.55 45.29 44.61 46.91 47.50 48.81 49.32 50.63 50.06 51.84 53.85 51.69 46.77 50.71 51.11 53.06 54.61 53.36 56.39 50.48 50.87 45.99 45.23
57.88 56.62 55.60 55.85 55.76 55.64 56.03 55.87 55.19 54.48 53.31 52.35 59.44 55.89 59.91 61.22 60.45 55.57 47.60 48.78 49.15 49.67 50.32 48.56 46.49 44.60 46.03 46.12 47.43 47.34 47.62 49.33 50.57 51.49 53.29 52.75 50.64 48.54 50.48 49.90 50.92 52.10 51.67 53.33 52.89 51.13 47.54
58.05 56.58 55.41 55.75 55.60 55.82 56.17 55.83 54.73 53.55 51.80 49.90 57.94 52.61 58.97 60.22 53.45 54.48 50.16 50.18 46.60 49.31 50.95 49.59 50.31 48.97 46.17 46.47 46.92 46.67 46.65 49.12 51.27 51.77 49.41 52.85 50.63 46.93 47.88 51.40 52.16 52.59 52.55 53.27 48.86 48.60 50.42
58.10 56.67 55.42 55.75 55.80 55.99 56.15 55.46 54.36 53.19 52.25 59.09 55.28 54.58 59.66 58.98 49.00 49.03 49.72 48.36 49.76 48.86 49.63 49.22 48.11 49.88 50.80 47.20 44.25 47.35 47.49 49.22 50.98 51.28 50.71 51.41 48.84 45.59 45.68 48.56 50.95 49.75 52.04 52.73 53.05 52.74 50.35
58.22 56.72 55.30 55.73 56.05 56.09 56.13 55.36 54.18 53.37 52.78 56.86 55.18 50.89 53.66 55.56 54.56 50.35 48.20 47.33 46.71 49.67 49.29 50.15 49.02 50.71 49.60 48.70 50.71 47.66 47.85 48.90 50.87 49.11 49.80 52.68 49.74 48.12 44.00 47.12 49.80 48.16 49.08 50.89 51.11 48.74 50.03
58.27 56.88 55.24 55.55 56.11 56.27 56.31 55.56 54.48 53.32 53.06 57.90 55.07 50.49 53.12 49.40 49.36 50.05 49.56 48.39 45.81 45.59 49.24 50.75 48.34 48.32 48.92 47.07 47.63 47.75 49.21 48.89 50.03 50.10 51.43 50.54 46.40 48.31 48.08 47.38 48.78 49.10 48.43 48.05 49.01 50.83 48.85
57.86 56.83 55.08 55.23 55.93 56.21 56.33 55.97 54.93 53.62 52.16 58.83 55.00 54.15 53.29 51.62 50.68 49.33 47.19 47.19 45.86 46.36 48.37 46.11 46.67 47.36 49.05 48.62 49.29 47.21 48.81 49.63 49.19 50.95 50.85 50.69 47.63 48.07 45.83 46.28 46.24 45.11 46.36 46.44 48.38 49.34 50.89
57.64 57.01 54.58 54.56 55.53 55.99 56.35 56.11 55.44 53.79 54.04 58.05 59.31 57.90 54.86 48.68 50.00 48.69 47.32 46.89 45.77 47.48 47.61 48.68 47.89 47.98 47.59 48.31 50.97 52.25 52.80 52.19 52.19 50.91 48.55 49.43 48.30 46.56 42.99 45.99 44.70 42.50 46.44 46.91 47.52 49.54 51.35
57.30 57.07 54.24 54.13 55.33 55.61 56.27 56.47 55.93 54.63 53.42 60.96 59.27 58.34 54.66 49.70 50.43 48.48 47.86 48.16 47.67 48.14 46.41 48.15 49.35 48.57 50.20 52.53 52.27 51.62 51.40 51.43 50.81 51.16 51.45 48.57 48.65 47.72 43.13 45.43 37.38 46.32 49.75 49.17 47.79 48.95 52.06
57.10 56.77 53.83 53.78 54.95 55.29 56.02 56.82 56.46 55.42 54.34 60.99 60.43 58.58 55.21 52.07 50.87 49.58 48.89 48.61 49.54 50.07 49.00 48.55 48.93 51.23 52.73 50.93 47.85 44.05 45.06 45.67 46.55 47.88 48.61 49.96 48.86 44.91 41.91 41.84 44.10 44.86 47.14 46.36 46.93 47.67 51.31
56.92 56.31 53.41 53.33 54.35 54.98 55.78 56.43 56.45 55.89 54.63 60.47 60.43 61.80 57.32 53.58 51.15 51.44 49.71 50.20 50.21 49.93 49.36 48.93 51.62 53.87 52.19 49.84 49.08 41.56 41.84 43.11 42.83 44.16 48.72 48.63 49.90 45.77 43.93 39.81 37.93 46.23 49.01 51.72 50.22 44.66 51.88
56.60 56.38 53.32 52.83 53.88 54.70 55.32 56.04 56.22 56.15 54.99 56.96 60.11 62.35 59.07 52.98 54.20 53.73 52.78 52.40 52.30 51.18 51.13 50.38 49.79 49.68 52.22 49.57 47.16 43.90 42.99 45.81 41.44 41.12 42.20 43.99 45.02 42.43 42.91 41.20 44.48 49.84 49.69 50.05 40.68 45.99 52.49
55.98 56.22 53.27 52.25 53.32 54.31 54.78 55.40 56.05 55.87 55.94 56.23 60.06 61.57 58.19 54.99 55.82 54.06 54.43 52.63 52.30 52.52 51.01 51.61 49.71 49.44 48.67 46.78 46.62 46.03 44.48 45.12 43.73 46.76 45.22 43.85 42.51 42.43 43.68 41.70 39.19 51.48 49.09 44.64 50.64 52.92 52.74
55.64 56.08 53.84 52.00 52.91 53.90 54.45 54.84 55.56 55.71 55.43 54.69 59.22 61.47 60.65 56.21 56.92 58.46 57.21 57.88 56.50 55.99 55.10 52.44 51.38 48.52 50.79 50.83 49.56 49.02 46.34 46.96 44.60 41.81 48.58 43.25 47.17 45.35 45.27 46.48 52.53 53.05 51.77 54.36 54.30 52.34 51.47